GFSFLT1_850_spd_015.txt.gz
Wind_Speed
10 6 4 4 4 3 5 7 7 7 5 5 6 7 8 8 9 10 11 12 13 17 18 21 22 20 21 23 25 25 28 29
5 4 6 6 5 5 5 6 9 3 3 4 6 7 10 11 11 13 12 13 18 18 17 18 19 20 22 25 26 26 28 28
11 12 12 10 9 7 5 3 2 1 3 3 7 10 9 11 11 13 14 16 21 21 19 19 20 22 26 27 28 29 30 28
10 11 10 9 8 7 6 4 4 2 1 5 6 9 12 15 16 18 17 20 21 21 22 23 23 23 25 26 27 27 31 31
7 7 7 8 8 7 6 4 3 5 7 6 13 12 15 17 17 18 20 21 22 22 24 24 25 25 24 25 24 26 26 31
7 7 7 6 6 5 4 4 6 7 8 14 13 12 14 16 17 20 22 20 21 23 23 24 25 26 22 21 20 19 18 21
5 4 4 3 4 4 6 7 9 11 11 11 13 14 15 18 19 21 20 22 23 23 24 25 24 19 18 17 17 17 17 16
3 1 1 2 5 7 9 11 13 14 14 15 16 16 17 18 20 21 25 26 27 25 24 19 17 15 16 16 13 8 12 20
3 3 6 8 10 11 12 14 16 17 18 18 18 17 17 18 19 24 24 25 26 23 20 16 19 18 12 14 15 17 26 30
5 8 9 12 13 12 12 14 17 19 19 19 18 18 18 19 21 23 23 23 22 22 20 19 12 11 17 17 18 23 20 15
10 12 13 13 13 12 13 17 18 18 17 17 18 20 20 22 22 22 23 21 21 21 18 13 13 16 21 25 31 21 15 15
14 14 13 14 14 15 18 18 18 17 16 17 19 20 19 19 21 20 20 18 18 16 14 16 20 26 27 27 17 17 15 12
13 13 12 15 16 18 20 18 16 16 18 20 22 20 20 21 19 20 18 19 18 19 21 25 23 21 17 18 17 14 15 16
15 14 20 18 18 18 15 15 16 18 21 22 21 21 20 20 18 17 17 18 19 20 21 20 21 22 20 19 19 18 19 19
13 16 20 18 16 15 16 18 18 20 21 20 21 20 18 16 15 15 18 19 20 20 20 21 20 20 20 19 15 18 19 21
16 20 17 14 15 17 19 18 20 22 21 21 22 19 17 15 16 17 18 19 20 19 19 19 19 20 20 21 25 23 21 23
18 17 17 17 18 21 20 20 21 22 22 23 22 18 15 16 16 17 19 19 19 19 19 20 20 20 24 27 30 31 26 24
17 17 18 20 21 22 22 22 23 24 25 24 21 17 17 16 17 19 19 19 19 20 20 20 20 20 24 29 34 34 26 23
17 19 21 22 25 26 25 26 27 29 28 25 20 18 19 18 18 18 19 19 20 21 20 19 20 20 25 31 35 31 23 23

GFSFLT1_850_spd_018.txt.gz
Wind_Speed
15 11 9 3 3 2 2 6 8 12 5 6 5 7 7 7 7 11 17 18 15 18 22 21 21 26 27 24 25 28 31 32
13 11 7 5 8 9 7 11 7 4 2 5 6 5 7 7 9 14 16 15 23 26 27 24 24 26 25 26 30 32 33 29
16 14 14 11 10 7 6 3 4 6 0 3 6 7 9 11 12 8 13 24 24 26 24 25 24 26 29 30 25 27 28 25
14 13 11 11 12 11 8 6 5 3 3 2 5 9 9 11 16 23 26 19 23 23 20 23 26 27 30 33 31 26 29 26
12 10 8 9 9 8 6 6 4 6 8 7 10 8 11 15 15 16 19 21 20 20 24 26 28 30 32 33 23 25 28 28
9 9 9 9 8 6 4 4 6 9 14 14 15 17 17 16 17 20 20 18 22 28 26 28 31 33 23 21 19 18 19 18
6 6 6 6 5 6 7 8 9 11 12 16 14 14 15 16 17 18 18 24 31 29 27 27 23 20 20 23 25 27 28 29
6 6 6 4 5 8 9 10 12 13 14 12 12 14 14 15 17 21 27 28 25 27 23 19 19 23 26 28 27 26 25 22
3 4 6 6 9 11 11 10 12 14 15 14 13 14 14 16 20 26 24 24 22 20 25 25 24 20 18 22 19 21 20 26
3 6 6 7 9 11 12 12 15 15 18 19 16 16 19 23 25 25 21 19 21 21 21 19 23 21 23 24 27 32 33 20
9 10 9 9 10 10 12 14 16 16 15 15 16 19 19 23 25 20 19 24 30 26 20 20 21 22 25 26 27 26 18 21
10 12 9 10 13 13 15 18 17 15 15 16 18 21 22 21 16 20 26 31 28 20 22 26 27 26 25 22 21 21 21 20
12 11 11 16 16 17 18 16 13 15 17 20 22 21 20 19 23 28 24 21 21 22 23 26 25 24 23 22 22 22 22 19
11 13 16 21 21 19 16 14 17 16 19 21 22 21 20 22 21 20 19 19 21 23 25 25 26 25 23 22 22 18 18 20
12 14 20 20 18 16 15 19 18 19 18 20 21 21 23 19 19 20 19 20 22 24 23 23 23 23 23 22 20 24 28 34
16 18 17 17 18 18 21 22 23 21 23 22 21 24 21 17 18 18 18 20 21 21 22 22 23 24 23 24 28 30 32 35
15 16 17 18 20 23 24 26 28 22 23 25 30 23 20 16 21 16 18 20 20 22 21 22 22 21 24 28 31 33 34 35
17 16 19 19 21 24 28 28 30 29 30 27 27 27 19 20 16 14 15 19 20 21 22 21 20 20 24 31 33 33 35 36
15 18 19 21 25 27 27 28 31 34 34 36 23 27 19 17 16 12 14 16 19 22 21 20 23 29 31 31 34 31 34 29

GFSFLT1_850_spd_024.txt.gz
Wind_Speed
23 23 22 22 21 24 21 16 11 13 13 12 11 8 6 4 3 4 5 8 11 13 16 20 23 26 27 30 30 31 33 34
30 30 27 24 21 20 15 14 15 15 14 12 9 9 4 2 3 3 7 10 13 18 23 25 25 26 25 26 30 35 36 37
23 19 18 17 18 16 15 13 11 9 5 4 2 0 3 5 8 10 13 17 21 24 25 26 26 28 29 32 34 32 29 26
21 17 14 12 10 9 10 11 10 8 4 1 3 6 10 14 18 21 24 26 27 27 27 29 30 30 27 23 22 21 21 20
18 15 12 8 8 7 6 7 9 10 10 12 14 15 17 22 22 20 20 22 25 28 30 27 24 26 24 22 20 21 23 25
16 12 10 8 6 6 8 10 11 12 15 15 14 15 16 16 15 18 21 27 30 30 24 26 32 33 25 19 21 21 20 20
12 9 6 5 4 4 2 4 6 9 12 15 15 16 16 18 20 24 27 30 31 26 27 31 37 29 24 24 26 24 23 25
8 7 5 3 3 2 2 7 9 9 11 14 15 16 16 18 17 21 28 28 27 25 25 30 28 23 20 22 23 23 24 24
12 12 11 8 5 1 4 10 14 17 20 21 20 20 22 23 27 31 32 30 27 22 27 32 23 20 20 22 22 21 19 17
14 18 13 9 4 5 7 9 12 15 18 18 18 21 26 30 31 30 31 29 26 25 28 27 21 18 20 21 22 21 20 17
13 10 6 4 6 8 12 14 14 12 12 16 21 27 29 31 33 31 32 31 28 27 28 26 17 18 19 19 18 16 16 18
9 6 3 4 8 15 13 11 7 11 18 23 25 29 32 30 27 27 30 31 30 25 27 22 20 21 21 20 20 20 21 22
11 3 6 12 14 12 12 10 14 19 22 25 28 29 27 33 33 32 32 32 32 30 27 21 22 21 20 21 22 24 24 21
2 5 12 14 11 9 8 12 15 18 20 21 20 24 28 32 32 31 32 30 19 18 20 23 19 20 22 21 23 23 25 28
6 11 11 7 8 11 16 18 20 23 24 17 20 28 29 26 23 23 29 35 38 17 17 17 19 23 22 22 23 26 28 30
11 10 8 8 11 16 14 17 19 19 20 25 29 29 26 33 25 26 28 29 24 18 11 16 19 20 21 21 24 26 31 34
6 6 8 10 14 14 14 13 17 24 28 29 28 28 33 33 34 36 32 26 22 5 10 15 19 16 19 24 28 31 31 27
7 9 11 11 11 10 15 20 25 25 24 23 24 31 33 37 40 29 24 23 10 5 11 13 14 20 23 27 28 26 26 26
8 10 10 10 12 16 19 22 18 19 21 25 30 33 37 39 26 19 15 10 9 7 10 15 19 22 26 27 26 24 26 28

GFSFLT1_850_spd_027.txt.gz
Wind_Speed
11 12 13 20 30 36 25 15 13 7 11 9 9 8 7 6 7 8 9 11 14 16 18 22 26 29 32 33 35 36 36 39
21 20 17 19 23 23 19 13 9 7 7 7 8 7 3 3 5 7 10 13 16 21 24 27 31 33 32 34 35 34 32 30
27 26 22 18 16 8 7 6 5 3 3 1 1 2 5 7 11 14 18 21 25 27 28 32 33 31 30 28 27 27 26 24
22 18 12 11 14 14 12 11 7 4 1 3 5 9 12 14 17 20 20 22 24 26 30 29 25 24 27 26 23 23 24 24
18 15 16 14 13 11 8 7 7 7 9 10 10 12 15 16 17 18 20 23 27 31 31 26 26 29 32 25 21 20 20 19
20 18 16 13 8 5 4 3 1 3 6 11 12 12 13 14 14 16 22 29 30 31 27 27 28 31 28 25 24 21 19 20
16 15 14 12 9 3 2 2 4 8 12 14 14 14 14 14 16 21 26 26 28 28 27 27 27 28 26 23 23 20 19 20
19 17 13 11 7 4 3 4 9 12 13 13 14 14 14 16 21 25 26 31 30 29 27 25 26 28 23 21 21 21 21 18
12 10 9 6 7 3 4 9 12 14 13 14 13 13 17 23 26 28 29 31 32 30 29 24 24 24 21 19 20 19 16 15
12 10 9 7 3 3 7 11 14 15 13 13 16 20 24 26 28 28 30 30 29 28 27 25 21 21 19 18 18 16 16 15
16 13 9 5 2 8 12 14 11 9 10 14 18 20 24 26 25 27 27 27 29 31 25 21 20 20 18 18 18 20 20 21
15 12 6 1 7 10 8 3 4 9 14 17 18 19 20 21 24 28 28 29 28 23 19 18 18 15 21 19 20 21 22 22
9 5 3 5 6 5 2 5 9 13 17 20 19 16 16 22 26 27 26 25 26 30 35 36 22 12 19 20 21 22 22 23
7 2 2 2 1 3 6 11 14 19 21 19 17 21 27 28 25 30 31 26 27 30 31 29 14 14 17 20 22 23 23 24
2 2 3 3 5 7 10 13 16 17 17 20 26 29 29 28 28 30 32 34 30 31 29 24 14 12 17 21 20 21 24 28
3 3 3 4 6 10 13 14 13 18 23 28 29 27 25 26 31 37 35 26 21 22 22 10 11 11 19 16 22 27 30 31
1 3 4 7 10 10 9 13 19 24 28 27 23 22 26 31 36 34 26 20 18 21 12 6 10 14 16 23 27 29 28 28
3 5 6 6 6 9 14 18 24 26 22 20 20 26 29 34 32 25 18 12 10 8 6 7 10 18 21 24 26 25 26 27
6 4 5 5 9 13 18 23 23 18 16 20 24 29 33 31 24 12 9 6 8 5 5 10 17 19 23 24 26 26 26 27

GFSFLT1_850_spd_030.txt.gz
Wind_Speed
18 19 20 22 29 31 31 26 17 17 11 8 8 6 3 2 6 6 7 10 14 18 21 25 29 33 36 35 34 33 33 32
11 10 13 19 20 21 25 16 13 3 9 5 1 6 5 4 5 8 12 17 20 21 25 28 31 33 31 31 31 31 30 31
12 11 10 10 11 9 5 8 12 9 2 4 6 7 9 12 13 11 17 20 19 23 27 30 29 27 26 27 27 26 25 27
22 16 12 8 12 16 15 12 9 6 6 7 6 7 9 12 14 14 17 17 21 25 27 27 26 26 25 26 25 24 24 21
12 9 13 16 16 14 10 9 7 4 6 7 9 9 11 11 12 14 14 18 24 25 29 27 25 25 24 25 23 21 19 18
15 16 15 14 11 8 5 2 2 1 4 7 9 10 10 10 10 11 17 21 24 25 26 25 27 26 27 29 26 23 20 21
18 17 13 10 9 3 3 5 2 6 9 11 12 11 10 9 12 17 22 22 25 26 28 29 30 28 26 25 23 20 19 20
20 20 19 12 10 8 5 4 5 7 10 11 10 8 10 14 18 21 20 21 25 25 28 27 28 24 21 18 22 19 19 20
19 19 16 13 12 9 7 3 7 10 11 8 7 10 14 17 19 20 20 22 24 24 26 28 25 22 17 20 18 19 19 19
20 18 16 14 12 8 3 8 10 10 6 7 11 14 16 18 19 20 21 24 24 25 26 27 20 17 18 19 17 20 18 17
20 19 17 13 8 4 7 8 6 4 7 10 13 16 18 19 18 19 22 23 24 28 27 26 31 33 29 20 16 17 18 17
22 19 14 9 6 4 8 8 5 7 10 15 18 18 17 16 21 21 21 24 27 27 24 26 27 29 27 18 13 17 18 19
16 12 7 4 3 8 8 7 7 11 14 15 13 14 19 23 21 23 26 29 33 30 25 26 27 23 21 14 14 18 19 20
11 7 5 4 5 4 7 7 10 12 12 13 17 21 22 22 24 27 30 34 33 27 21 22 23 23 17 15 13 20 19 22
9 5 4 4 4 6 7 10 11 12 14 19 23 22 21 23 28 32 35 33 27 21 17 17 19 17 12 12 15 18 25 29
6 5 4 5 7 8 9 9 10 15 21 23 19 18 21 27 32 36 33 27 23 17 15 17 11 6 10 11 17 25 29 32
7 7 7 7 7 8 7 10 15 21 21 17 17 19 25 30 33 31 27 21 13 9 7 6 5 8 11 18 23 28 28 29
10 9 6 6 7 8 10 15 19 19 18 18 18 24 28 30 28 26 19 15 9 10 7 7 8 11 17 23 25 25 25 27
10 7 7 6 7 9 13 16 18 17 16 16 23 26 29 27 23 22 18 17 15 13 8 10 13 17 23 24 24 24 25 25

GFSFLT1_850_spd_033.txt.gz
Wind_Speed
18 20 19 18 18 22 24 24 19 9 9 13 13 7 3 2 6 6 4 6 9 12 15 19 24 27 27 26 26 26 26 28
13 13 12 13 15 15 17 21 14 4 3 12 12 6 3 2 4 6 5 7 10 13 18 23 24 24 25 25 23 25 26 27
7 6 5 5 3 7 10 9 14 12 12 9 5 1 2 5 5 5 7 10 14 19 22 24 24 23 24 25 24 26 25 25
15 15 15 17 20 20 18 17 15 14 10 6 3 3 4 7 8 8 9 14 17 21 23 21 21 23 25 26 26 26 23 19
20 18 25 27 24 20 17 15 12 8 4 2 4 7 8 8 8 8 12 15 19 20 20 20 22 23 24 24 24 21 19 16
20 24 23 21 19 15 12 11 11 7 5 5 6 7 7 6 7 10 15 18 18 21 21 22 22 24 26 23 18 16 16 14
22 22 21 19 19 17 16 14 9 6 5 5 6 7 6 6 10 14 17 19 21 21 21 22 23 25 23 18 15 15 16 16
23 24 22 18 15 12 12 10 6 4 6 6 6 5 8 10 13 14 16 17 18 19 21 23 25 24 22 19 18 26 17 17
22 20 17 14 9 11 10 7 5 5 5 4 3 7 9 11 13 16 17 18 20 25 25 27 29 28 29 25 28 24 17 18
22 19 17 12 12 11 9 7 5 2 1 3 7 9 11 14 16 17 17 22 25 25 25 27 26 25 26 24 27 23 20 17
21 19 16 15 15 11 7 3 2 2 4 7 9 11 14 15 15 20 23 23 25 27 30 29 23 23 26 23 24 28 13 16
21 19 17 16 11 7 2 2 2 3 7 9 11 12 13 17 22 21 23 26 29 32 31 27 21 20 26 16 23 14 16 17
18 18 16 12 8 5 2 2 7 8 8 9 10 14 19 23 21 21 24 29 32 31 27 24 18 19 22 23 19 17 17 17
20 17 14 11 7 4 2 12 6 9 9 11 15 20 21 18 18 22 29 33 30 27 23 17 15 17 17 13 15 13 15 17
19 16 13 9 6 5 10 7 8 7 10 16 19 17 15 16 22 28 31 29 25 22 16 13 14 11 6 8 11 13 18 24
18 15 12 8 5 7 8 6 5 9 15 18 16 15 15 21 27 29 27 23 20 18 13 9 7 6 7 10 15 19 25 27
18 14 11 9 7 7 6 5 9 13 16 16 16 15 18 25 27 25 23 20 16 13 11 9 6 8 11 16 20 25 25 25
17 14 10 8 7 6 6 8 12 15 15 14 12 17 23 25 24 23 23 19 16 15 14 9 10 12 16 20 25 23 23 24
16 13 11 10 9 8 8 10 14 15 12 11 17 21 23 23 23 22 21 18 16 15 16 11 13 16 19 24 23 22 22 23

GFSFLT1_850_spd_036.txt.gz
Wind_Speed
10 11 10 12 15 16 16 18 18 11 5 8 9 10 6 7 3 4 4 4 5 8 13 17 18 13 13 20 19 15 16 17
9 13 12 14 18 19 12 11 19 12 4 12 13 11 7 5 4 5 5 5 7 11 12 14 14 13 18 19 16 17 18 17
9 9 11 13 14 13 11 10 11 12 13 13 11 8 7 7 5 8 7 8 11 13 15 10 13 12 13 14 16 18 18 18
11 11 12 15 18 16 18 16 18 18 16 13 9 8 5 6 9 9 9 9 10 12 16 18 16 15 15 16 16 16 19 18
13 15 16 19 22 21 19 20 20 19 17 11 10 4 5 6 6 5 4 10 14 18 20 20 18 16 16 17 18 15 16 19
16 18 21 20 19 18 18 18 15 16 15 8 5 5 5 4 4 4 7 10 16 17 15 16 16 17 18 18 16 17 16 18
18 20 19 17 16 15 16 15 14 12 9 7 7 4 4 3 4 6 10 12 14 15 16 17 18 20 20 21 20 19 16 17
21 20 18 16 15 15 14 12 10 9 8 6 4 4 3 3 5 9 13 16 17 18 19 20 20 21 23 22 21 19 18 18
21 19 16 15 14 13 12 12 9 7 3 3 3 5 3 5 9 12 13 13 15 16 18 20 21 22 21 20 19 18 17 20
20 18 17 15 12 13 12 10 7 3 3 7 8 7 9 10 13 13 10 13 15 18 21 23 24 22 21 20 19 19 19 20
19 18 16 14 13 14 13 9 5 1 5 9 8 10 11 12 13 12 11 14 18 21 24 24 23 21 19 19 18 20 16 17
19 17 15 14 12 11 11 9 3 5 6 8 10 9 12 13 10 10 12 18 21 23 22 21 20 18 15 19 22 15 14 14
18 17 17 15 14 13 13 7 4 7 8 7 5 11 11 8 10 13 17 20 22 20 18 17 15 13 13 15 14 10 11 13
19 19 19 18 15 14 11 3 6 7 7 5 6 7 8 9 12 16 19 20 19 16 15 14 12 11 11 10 8 9 10 12
20 20 19 17 16 14 7 11 11 8 7 6 8 11 14 13 15 19 19 19 17 14 13 11 10 8 6 6 6 10 13 15
21 21 19 17 16 13 11 10 10 10 9 9 10 13 14 13 17 19 18 18 14 12 11 9 9 6 4 7 10 13 16 17
22 21 19 17 16 12 12 11 11 9 9 11 11 13 14 15 19 19 16 14 14 13 12 11 9 6 12 14 16 18 15 15
23 21 18 16 14 13 12 10 9 10 14 13 13 13 16 15 16 15 15 15 14 13 11 11 10 9 14 17 20 21 15 14
21 19 17 15 15 12 11 8 11 14 13 11 11 13 13 14 14 14 15 14 13 13 13 11 10 11 17 19 23 17 14 14

GFSFLT1_850_spd_042.txt.gz
Wind_Speed
21 20 19 21 24 29 24 23 20 17 15 14 15 16 20 21 16 7 7 4 3 3 8 9 11 8 16 22 21 17 18 17
21 18 17 21 25 23 19 19 19 19 17 15 14 17 10 12 12 8 6 3 5 5 6 7 11 12 12 13 15 18 19 20
21 19 19 19 24 22 21 20 15 14 14 12 9 9 9 8 9 9 8 7 7 4 8 7 10 15 15 12 17 22 21 16
20 20 20 21 22 25 20 21 16 15 10 10 10 10 9 11 9 10 13 8 3 3 7 10 15 15 12 16 18 18 21 26
23 21 22 21 22 17 16 16 14 14 16 14 12 14 13 12 11 6 11 9 9 6 10 15 16 16 18 18 20 24 28 27
23 25 24 21 22 21 19 16 19 19 19 15 14 10 14 15 13 14 10 7 12 9 10 11 14 14 16 20 21 20 22 25
21 23 25 18 21 20 23 21 23 20 17 16 15 13 10 12 11 9 6 9 9 10 14 16 19 22 26 24 26 26 26 26
19 19 21 24 24 23 23 22 22 20 19 16 15 13 12 12 13 15 14 13 11 14 17 21 23 20 21 23 25 25 25 25
19 22 25 26 25 23 22 23 21 19 18 16 17 15 14 13 8 12 12 12 15 16 17 15 20 21 23 24 24 23 23 23
22 24 24 24 23 22 23 23 22 23 19 20 19 16 13 10 15 16 14 12 10 12 16 19 19 20 20 19 19 19 20 21
23 26 25 24 23 22 21 22 25 23 23 24 19 11 13 15 13 11 12 12 13 13 16 17 17 16 16 20 22 21 21 21
24 26 25 22 23 23 22 21 24 23 21 20 15 17 17 9 9 11 11 11 12 14 15 16 15 15 19 23 19 15 17 16
25 26 25 23 23 22 23 22 21 20 20 18 14 17 9 9 10 12 11 12 12 15 16 14 15 17 22 19 15 17 16 12
25 26 24 25 23 22 21 23 22 20 20 15 11 10 13 10 11 12 14 13 16 17 15 14 15 17 20 14 12 12 9 9
23 24 24 25 22 21 22 23 20 21 15 12 10 10 13 10 13 14 15 17 17 15 14 14 17 20 15 13 10 8 10 13
19 18 19 20 20 20 22 21 22 18 14 13 11 12 11 14 14 16 16 16 16 15 14 17 20 20 16 17 18 19 20 19
12 13 14 17 19 23 20 20 17 13 15 13 11 10 15 12 14 14 15 14 14 15 17 19 21 22 21 23 22 22 21 20
11 14 16 17 19 20 18 19 16 16 14 10 11 14 11 11 11 12 14 15 17 18 19 20 25 20 24 24 21 20 22 18
7 10 14 14 16 15 17 18 16 14 7 9 9 10 10 8 11 15 16 17 19 18 17 19 22 22 21 23 20 20 21 18

GFSFLT1_850_spd_045.txt.gz
Wind_Speed
26 21 23 24 26 23 23 27 27 26 21 21 21 20 16 16 12 10 8 7 6 5 5 6 9 10 12 17 18 19 22 25
26 25 28 33 29 24 24 25 27 25 23 18 18 18 19 18 17 15 11 7 5 3 7 8 8 12 15 15 16 20 24 24
28 29 31 33 31 28 27 26 25 22 20 16 14 15 15 10 12 11 10 8 5 7 9 11 12 16 18 18 19 22 22 21
34 30 24 30 34 34 24 22 16 19 16 16 15 13 14 15 13 11 9 8 8 8 11 14 17 18 19 21 21 22 23 25
35 33 27 23 31 26 22 16 14 16 16 15 17 19 17 12 5 7 10 10 6 9 13 14 15 15 17 20 23 24 26 25
39 34 31 25 25 24 16 13 16 21 21 16 16 13 8 9 11 11 10 8 8 11 10 11 13 15 19 21 24 29 26 27
34 30 32 31 27 21 14 17 21 20 21 20 15 14 17 18 20 19 14 7 11 14 13 14 16 18 22 27 28 25 26 26
34 35 35 32 27 23 22 24 23 25 26 22 20 18 21 19 17 16 17 15 12 12 18 20 24 27 27 25 24 24 23 23
31 33 30 26 23 24 24 27 30 31 28 24 24 21 20 18 19 20 18 14 18 23 24 26 27 24 24 21 20 17 16 19
23 23 22 23 24 22 24 30 29 29 28 27 26 25 24 21 21 19 20 19 21 26 24 22 22 21 19 18 18 19 20 22
20 24 26 28 27 29 28 22 24 25 25 27 28 27 24 22 18 18 17 23 19 21 21 20 19 18 18 20 21 24 25 17
24 27 29 30 29 29 26 25 24 26 28 29 27 25 22 17 20 18 12 18 22 17 17 19 17 17 20 21 23 18 16 17
28 30 31 30 28 24 22 27 26 30 30 28 23 18 14 17 15 12 14 20 19 18 19 19 16 18 21 21 22 14 12 10
31 32 34 32 30 29 28 29 26 30 29 25 19 14 15 13 14 15 15 18 20 21 20 18 17 18 21 21 19 13 14 13
32 36 38 38 35 32 28 31 28 25 24 20 15 10 11 16 15 13 18 20 21 21 20 17 15 21 23 23 19 16 17 16
29 34 36 34 31 30 26 28 30 28 22 15 7 12 13 15 11 18 22 22 21 21 17 16 17 21 23 23 21 20 22 25
9 15 28 29 28 25 23 29 30 23 16 8 14 13 14 14 16 16 17 19 21 19 19 21 23 25 25 24 23 22 23 23
5 8 12 18 22 23 26 26 21 16 15 18 13 16 15 7 14 14 17 19 21 23 24 24 23 23 23 23 23 21 22 21
8 3 5 8 12 20 19 18 17 19 21 15 8 6 1 7 8 14 16 18 21 24 26 27 24 24 25 22 23 23 24 20

GFSFLT1_850_spd_048.txt.gz
Wind_Speed
42 39 40 36 30 29 33 33 32 29 28 27 25 22 20 17 15 11 8 8 10 10 10 9 8 7 9 14 16 16 18 20
41 41 40 38 32 29 30 32 35 31 29 26 25 24 23 21 18 13 11 11 11 11 9 8 7 8 12 15 14 16 18 22
44 45 43 39 32 29 27 28 29 29 27 26 25 22 22 20 17 16 15 14 12 11 8 7 10 11 14 14 17 19 22 23
45 47 43 39 37 31 26 24 25 26 26 26 25 22 20 21 18 18 17 15 11 8 8 10 12 14 15 17 21 24 25 26
45 46 44 41 38 34 30 27 26 24 28 29 26 24 23 18 16 16 16 14 10 9 13 12 13 16 18 22 24 24 26 28
47 48 45 43 40 37 32 29 25 22 29 27 22 22 18 15 18 18 16 14 13 12 11 11 16 18 19 20 22 25 29 28
43 44 42 42 37 34 29 26 20 21 27 23 18 18 19 20 21 20 17 18 16 16 15 16 18 18 19 21 25 27 27 27
39 41 38 33 33 32 30 22 21 22 26 22 19 19 21 21 20 22 22 21 21 16 12 16 18 22 22 24 25 25 23 22
41 42 37 35 34 33 28 23 22 25 23 23 21 22 23 22 23 26 26 25 19 19 17 17 23 23 25 26 24 23 22 23
37 40 39 35 32 31 28 24 25 25 25 25 27 26 26 24 24 26 26 21 19 12 14 18 25 27 26 24 24 22 23 26
36 37 37 34 28 23 22 24 26 26 30 31 31 28 24 23 24 24 20 19 14 14 17 19 24 23 24 24 23 22 25 22
28 28 30 29 26 26 26 24 24 24 32 30 27 26 25 23 21 18 15 15 17 21 16 21 22 23 23 22 22 22 26 20
24 25 27 28 29 29 29 28 25 28 32 31 32 30 26 21 17 16 19 20 18 12 20 19 22 23 21 21 21 23 27 20
32 32 34 35 36 36 35 33 28 29 31 34 34 28 22 18 19 15 21 19 8 17 19 20 23 21 20 20 24 26 26 22
35 37 39 39 40 38 35 29 27 32 36 34 29 24 20 16 16 15 13 6 14 17 17 20 20 19 20 23 24 26 24 22
35 37 38 40 39 38 35 32 31 34 33 28 22 18 18 18 16 15 10 9 11 14 18 22 22 21 22 24 25 24 21 22
19 30 31 33 37 36 35 35 32 30 27 23 19 17 21 17 14 13 9 8 12 18 21 22 24 24 25 23 23 24 23 22
7 5 11 25 27 28 31 31 28 25 22 16 17 22 20 16 11 7 5 12 19 17 22 23 23 25 25 23 23 25 25 24
10 8 10 16 19 22 23 25 27 24 20 22 21 17 13 10 5 7 21 14 13 22 23 22 24 24 25 23 23 25 26 23

GFSFLT1_850_spd_054.txt.gz
Wind_Speed
27 24 24 26 27 24 24 23 22 23 25 27 27 24 22 22 20 17 13 14 16 15 16 16 13 11 8 8 9 8 9 12
25 28 26 25 28 27 28 28 26 25 28 29 28 27 27 25 22 16 17 17 16 17 17 14 12 11 9 8 8 8 10 13
29 29 31 30 29 26 28 29 29 27 28 29 29 26 27 25 23 19 19 18 17 16 15 14 14 11 8 8 7 8 11 15
31 33 34 32 33 31 28 28 29 29 30 30 30 30 32 29 25 23 22 19 17 17 16 16 13 10 10 8 8 10 12 17
33 35 37 38 37 34 32 32 31 31 33 33 35 34 33 30 27 23 21 20 20 19 18 15 12 11 10 9 9 12 15 19
39 40 39 39 39 36 34 34 34 34 35 36 36 35 34 30 25 23 21 22 22 20 18 16 14 13 11 8 10 14 18 20
43 41 41 41 42 41 38 36 35 36 36 36 37 37 35 29 23 23 24 25 24 23 20 19 19 17 13 13 19 15 20 25
42 41 42 42 42 43 39 41 41 39 39 39 39 37 34 25 23 24 24 26 26 26 25 25 25 23 19 14 18 21 20 23
44 44 43 44 43 42 40 41 41 42 42 39 39 39 31 24 23 21 21 24 24 26 28 27 25 18 14 18 17 19 19 17
46 44 46 46 44 44 42 41 41 42 42 37 36 36 26 26 22 22 23 26 28 30 31 31 22 21 18 18 16 15 15 16
34 40 43 45 44 45 44 43 42 40 33 34 25 23 24 25 26 28 29 29 31 33 32 23 22 20 12 10 16 14 15 15
22 27 32 34 36 38 40 38 39 37 32 26 24 25 27 30 31 31 30 30 32 31 22 22 22 14 13 9 13 17 16 15
14 17 20 22 26 28 28 31 33 30 26 24 24 27 31 33 36 31 30 30 30 26 25 21 16 6 7 12 18 15 15 16
11 14 16 16 18 21 27 29 27 23 22 25 27 30 33 33 30 28 26 26 24 16 15 15 10 8 10 16 15 14 14 16
16 17 19 21 23 25 24 23 21 22 24 26 29 31 29 28 26 23 22 23 18 15 13 9 4 13 14 14 14 15 18 18
20 22 20 20 21 21 20 19 22 22 23 26 27 25 22 26 21 21 22 17 11 12 7 12 15 14 18 14 18 20 18 19
4 10 12 15 18 19 20 19 20 21 20 20 19 21 23 20 21 19 16 10 12 11 15 15 22 14 16 19 21 22 20 20
12 10 6 2 4 8 10 12 12 14 14 15 17 19 19 18 16 13 14 17 12 16 23 22 13 15 18 23 23 24 24 22
11 10 9 7 3 2 5 7 10 13 13 15 16 17 17 15 15 8 7 16 17 29 14 12 16 19 23 24 23 24 24 22

GFSFLT1_850_spd_057.txt.gz
Wind_Speed
20 21 21 25 29 26 24 22 19 19 21 22 24 26 25 24 22 21 20 18 14 12 13 14 15 12 13 10 9 7 6 8
20 23 22 24 27 27 25 24 22 23 26 27 27 29 27 26 24 21 21 16 15 14 17 16 16 15 13 11 9 6 7 8
23 25 29 28 28 30 29 27 26 25 24 26 28 27 29 27 25 25 23 18 17 19 18 18 17 17 14 11 8 6 7 8
26 30 32 32 31 31 30 29 29 29 28 26 29 30 29 30 29 27 22 19 20 20 20 19 18 17 15 12 10 8 6 10
29 31 34 35 33 31 29 28 28 30 30 29 30 31 30 29 29 26 22 22 22 22 22 21 20 20 17 14 13 9 8 10
34 36 34 33 33 33 30 29 28 29 30 32 31 33 33 31 30 26 23 24 24 24 24 23 23 20 18 17 14 11 9 15
34 32 32 33 33 33 32 32 31 31 30 32 32 33 33 33 31 27 25 26 28 27 26 25 24 22 22 21 17 14 14 16
36 35 35 34 35 35 35 35 35 35 34 35 32 31 33 35 34 28 27 30 31 29 28 27 26 25 24 20 15 14 13 18
41 40 38 37 36 36 37 38 39 39 37 37 29 18 34 36 35 31 28 29 29 28 29 29 29 28 28 21 22 16 12 13
34 41 41 40 39 36 36 36 38 41 37 38 34 29 36 37 36 31 26 26 29 31 30 29 32 30 25 25 22 14 11 13
18 26 33 38 38 36 35 35 35 37 37 37 35 32 34 33 33 29 29 28 30 29 30 33 31 25 23 20 12 8 12 13
6 11 17 23 30 32 31 32 33 34 35 33 32 32 28 29 28 29 27 25 21 34 30 27 23 20 17 14 10 12 10 15
3 6 10 13 15 17 19 22 23 25 27 28 26 24 24 24 26 28 31 32 29 28 28 28 24 19 18 15 12 12 14 14
8 9 10 11 12 13 16 17 17 15 16 19 20 19 21 25 30 31 29 30 22 26 26 22 20 12 15 11 13 15 15 16
9 11 13 14 14 15 14 12 12 13 16 19 19 20 23 23 21 15 15 19 21 24 22 16 14 9 13 13 14 15 16 16
8 9 9 8 8 9 11 13 14 16 15 15 14 12 12 14 15 14 14 17 19 16 15 12 10 17 19 17 16 18 18 20
8 5 4 4 3 3 3 3 4 4 5 5 5 6 8 8 11 14 16 18 15 12 7 13 18 23 20 13 17 22 23 24
17 15 12 9 7 5 4 3 2 2 3 2 2 5 9 13 14 15 16 11 9 6 14 19 22 18 13 15 20 25 27 27
16 15 14 12 9 7 6 6 6 6 6 7 9 11 11 13 13 10 7 5 10 18 24 19 13 14 17 21 24 25 27 28

GFSFLT1_850_spd_060.txt.gz
Wind_Speed
17 18 20 23 24 22 22 22 20 21 20 21 19 23 23 21 22 20 22 21 20 18 20 17 18 17 15 13 12 8 5 5
18 20 21 24 26 25 25 24 21 18 19 21 20 21 22 22 22 25 23 21 22 21 20 18 19 19 18 15 13 9 7 8
19 21 22 24 27 28 26 24 23 23 20 21 21 23 22 21 24 26 24 25 24 22 19 20 21 19 19 18 14 10 8 9
22 24 26 25 27 27 27 25 23 23 21 19 19 18 19 23 22 27 27 27 24 20 21 22 23 22 19 19 16 13 7 7
24 25 27 28 27 26 27 26 25 25 25 21 22 21 20 19 21 28 28 27 24 24 23 26 25 23 19 21 18 14 12 9
27 27 27 26 26 26 26 26 26 25 25 26 24 23 18 18 22 27 27 27 26 26 27 27 27 27 25 24 23 19 18 12
26 26 25 27 27 27 29 28 27 26 27 29 30 24 22 23 25 26 27 28 25 26 30 29 28 28 29 27 28 25 23 15
25 26 30 29 29 29 30 30 30 29 31 30 31 30 29 24 27 29 31 31 30 30 32 30 30 31 29 32 27 25 20 20
28 28 28 29 30 30 32 33 31 29 31 31 31 30 25 22 20 31 33 33 32 32 30 31 30 32 33 30 28 22 22 18
22 27 26 26 26 29 30 30 28 27 30 28 31 32 26 21 27 33 31 28 31 27 28 31 33 29 33 29 25 22 19 14
10 17 25 25 24 22 22 24 24 23 24 27 31 32 28 33 33 30 27 28 31 29 30 29 30 35 32 29 25 22 15 13
4 8 12 17 19 19 18 19 19 19 20 21 26 26 26 27 29 27 24 27 32 27 24 25 28 34 29 24 21 14 15 15
1 3 6 8 10 11 12 13 14 15 15 17 19 18 19 22 21 18 21 30 30 26 25 19 32 32 27 26 12 14 15 14
2 4 5 6 7 8 9 10 10 10 13 15 14 15 16 18 21 24 26 28 26 28 20 27 29 22 18 11 12 14 15 16
6 7 7 8 8 10 9 8 11 11 10 10 12 13 13 13 14 16 16 10 14 20 25 19 18 15 12 13 16 14 17 17
6 8 8 8 8 7 9 8 8 9 7 8 7 7 5 7 8 9 12 12 11 15 15 16 11 9 13 19 18 20 17 19
6 8 10 10 10 9 7 6 7 7 7 5 5 4 5 5 6 9 9 11 13 16 13 6 11 15 18 19 19 18 20 20
12 12 12 12 12 11 11 11 11 10 9 10 8 8 8 9 10 10 11 11 8 4 9 14 15 20 19 12 13 19 20 22
13 14 16 15 15 15 15 14 14 13 12 12 11 11 11 11 10 8 3 2 7 11 14 18 14 10 13 15 19 24 25 25

GFSFLT1_850_spd_063.txt.gz
Wind_Speed
17 19 22 22 24 25 25 23 21 19 17 16 15 15 16 17 18 16 20 20 19 19 17 20 20 17 17 13 11 10 8 8
19 20 22 23 23 24 23 23 22 20 17 17 17 18 18 19 18 19 20 19 21 21 17 19 20 18 15 15 13 12 9 10
20 23 24 25 26 25 23 22 22 20 18 18 18 18 19 19 18 18 20 20 23 23 21 20 22 18 18 19 16 11 11 10
23 25 26 26 27 27 25 24 23 21 19 18 18 18 19 20 20 19 23 23 24 23 21 24 24 24 24 22 19 16 13 11
24 26 28 28 28 28 27 26 25 24 23 21 22 21 22 21 21 21 28 23 27 24 23 26 27 25 28 23 20 17 16 15
26 28 28 28 28 29 29 28 27 25 24 24 22 22 20 18 19 21 25 21 24 23 25 32 28 28 29 26 21 19 16 17
26 26 26 27 27 28 28 28 29 28 26 26 26 24 23 21 22 24 24 21 25 25 29 30 28 31 29 29 22 18 25 24
25 27 29 29 31 31 29 29 29 29 29 28 28 28 25 25 23 23 18 22 25 29 27 30 32 33 29 23 22 26 24 21
29 29 30 30 31 31 31 30 29 30 31 29 27 27 27 26 28 23 26 24 28 25 28 29 31 31 26 24 30 27 25 24
23 29 29 29 29 31 32 29 28 28 29 28 29 29 29 26 30 29 27 28 31 29 30 28 28 23 27 32 28 28 27 25
10 20 28 27 27 27 27 27 27 26 27 29 30 32 31 29 27 28 30 29 25 22 23 28 29 30 34 27 29 28 24 24
5 9 18 25 24 23 25 25 24 23 24 27 28 31 28 28 28 30 29 26 23 22 27 27 26 27 20 26 26 24 23 19
4 6 9 14 20 23 22 22 21 21 21 20 25 23 20 21 18 20 22 23 23 25 27 24 13 14 20 26 20 16 12 17
5 7 8 10 13 16 17 16 16 16 16 17 23 20 16 18 20 20 21 19 21 23 22 17 18 20 21 16 16 13 14 16
9 8 10 11 12 13 14 15 18 21 24 23 19 17 15 15 15 15 14 14 12 11 15 19 18 13 12 13 11 15 15 11
9 10 10 11 13 16 20 17 16 15 13 14 14 13 12 9 8 8 8 9 10 8 10 14 10 12 10 13 16 16 16 21
6 10 12 12 12 10 12 12 12 13 12 11 11 8 8 8 7 5 6 9 8 8 9 9 8 9 13 14 17 17 19 16
9 12 13 12 11 12 12 10 11 11 10 11 11 12 12 10 10 9 7 6 7 6 6 8 11 13 16 15 11 14 15 17
13 14 15 15 15 15 16 16 16 16 16 16 16 15 13 12 9 9 7 6 5 5 7 9 10 7 13 13 15 19 22 22

GFSFLT1_850_spd_066.txt.gz
Wind_Speed
17 22 23 24 32 35 38 31 23 25 27 25 24 20 25 22 23 19 18 21 23 20 23 23 20 20 17 19 13 13 13 9
20 30 23 25 29 31 31 28 27 26 30 25 22 22 23 22 19 20 22 20 22 23 23 21 21 20 21 18 17 17 16 16
27 28 27 27 33 28 31 32 30 28 22 24 23 23 20 24 25 20 24 24 22 25 22 21 23 19 22 20 21 20 18 20
30 32 32 35 36 37 36 30 30 29 27 21 22 23 21 23 26 25 27 30 29 24 22 24 25 22 24 25 26 23 20 22
29 31 33 34 34 34 33 33 31 30 29 28 27 26 27 26 26 26 28 28 25 26 24 21 26 27 24 28 30 29 26 25
32 33 33 34 34 35 32 32 31 30 26 27 26 26 24 24 24 25 24 25 22 23 23 22 24 28 29 31 33 30 26 27
28 33 33 34 33 34 34 32 32 30 30 29 27 28 27 24 24 23 27 27 23 22 21 26 20 32 33 33 33 28 28 25
31 33 37 36 37 37 36 36 35 32 31 30 28 27 26 26 24 24 31 27 24 20 29 29 29 29 30 31 32 34 30 30
28 32 37 38 39 39 39 38 37 35 35 32 28 26 29 25 28 27 35 32 29 24 26 28 25 24 30 34 34 33 31 30
32 30 30 36 38 40 40 38 35 35 36 37 36 30 35 29 34 36 38 35 31 24 26 28 26 27 27 28 31 32 28 29
13 29 35 33 35 37 38 36 34 34 34 36 38 37 37 35 33 35 33 31 31 27 24 27 30 28 26 28 29 26 26 30
3 7 16 34 32 34 37 37 35 32 33 36 34 36 37 34 30 31 28 28 27 27 24 28 25 24 26 25 24 23 27 26
8 7 9 11 29 29 32 33 31 31 31 30 34 33 36 25 26 28 22 26 23 26 24 20 22 20 18 17 22 25 20 16
11 8 8 9 13 18 22 28 25 27 26 25 28 31 21 17 18 18 19 19 20 20 17 18 17 17 18 23 20 14 12 13
8 13 11 10 11 12 12 18 20 24 23 29 32 27 16 16 17 18 18 19 17 15 15 16 17 19 16 13 11 12 13 16
9 9 16 15 18 22 25 25 26 26 22 18 16 16 16 16 17 15 15 13 12 12 11 12 13 13 9 9 10 13 16 17
6 8 18 19 22 22 20 21 22 20 18 17 17 16 13 13 12 11 9 9 11 10 9 8 9 9 8 10 12 15 18 17
5 8 21 19 19 18 18 17 16 16 16 16 13 11 11 11 11 11 9 10 10 9 8 7 9 9 9 11 10 9 11 11
10 11 14 14 12 11 13 17 17 16 16 16 16 16 15 15 13 13 13 12 10 9 9 7 7 4 4 8 10 12 15 17

GFSFLT1_850_spd_069.txt.gz
Wind_Speed
15 14 14 18 21 25 23 32 37 38 37 31 31 24 25 20 23 23 21 21 21 19 19 18 20 20 20 20 19 16 13 14
19 18 19 22 23 28 35 36 37 35 32 34 36 31 24 24 24 24 22 22 25 23 22 23 22 21 21 22 20 19 19 20
25 26 27 28 35 40 34 34 34 34 40 31 26 28 27 26 26 26 24 22 21 23 24 24 25 24 23 23 24 25 24 25
35 30 34 34 35 35 33 32 31 33 33 29 31 27 25 27 30 27 24 24 25 23 21 25 27 25 22 24 26 27 30 28
41 36 36 36 36 33 32 32 31 33 32 33 33 32 30 29 30 29 27 28 28 29 29 29 31 28 25 24 25 27 30 28
44 39 37 35 35 35 34 35 37 37 34 30 30 30 30 27 28 28 31 32 32 30 30 32 31 31 28 24 21 28 34 30
44 40 37 35 36 35 34 39 36 33 33 38 35 32 32 34 31 33 34 35 34 33 30 29 29 29 26 25 24 28 35 33
43 46 47 43 44 45 41 40 41 39 37 36 41 38 36 37 34 35 36 37 37 35 32 29 27 26 25 24 28 27 30 33
48 49 47 47 48 48 47 44 46 47 45 44 43 42 39 40 37 38 39 41 37 35 34 26 22 22 25 27 26 29 31 30
45 49 49 48 47 48 47 48 48 49 49 48 43 43 42 44 39 40 39 37 33 33 34 25 23 24 25 22 23 25 28 27
45 46 49 48 47 45 46 45 45 46 48 48 47 44 42 38 40 37 40 36 26 36 38 27 25 22 21 21 21 23 24 23
6 20 43 46 48 48 47 47 45 43 42 44 46 45 42 38 37 33 24 31 36 37 32 30 23 20 22 22 20 22 20 20
5 4 5 36 47 47 48 46 47 45 41 39 41 42 43 31 36 30 32 31 26 22 21 22 21 22 20 21 20 19 19 20
14 8 6 8 28 38 41 40 34 24 20 30 33 31 25 28 33 39 29 26 22 21 18 17 18 18 20 18 16 18 18 16
19 14 10 11 12 10 23 24 24 25 28 37 31 26 21 17 24 19 17 17 17 16 17 18 18 16 15 16 16 16 14 13
22 22 22 19 17 15 13 19 22 21 23 28 27 21 16 15 14 16 15 15 16 17 18 16 14 14 16 15 13 12 12 13
10 9 28 26 22 20 16 13 18 19 23 23 20 18 14 11 12 13 14 15 15 14 14 13 13 13 12 12 10 11 12 15
12 9 21 26 27 24 21 17 12 14 14 14 14 13 13 11 12 14 14 12 13 13 12 12 12 11 11 10 11 12 10 8
17 19 25 27 25 24 22 19 18 16 12 12 12 13 13 14 14 15 15 13 13 14 14 12 11 11 10 9 8 8 10 11

GFSFLT1_850_spd_072.txt.gz
Wind_Speed
18 15 15 14 17 25 22 21 29 35 42 40 38 37 33 32 30 26 23 20 18 19 18 16 17 18 17 15 14 13 13 13
15 14 16 19 22 27 25 27 29 37 44 38 39 40 35 29 26 25 25 23 21 21 18 19 20 21 19 17 18 19 19 18
21 19 19 22 25 29 29 30 33 41 46 44 42 36 32 28 25 27 27 26 25 24 24 25 23 22 22 22 22 23 22 22
28 27 26 24 28 33 31 36 39 44 45 40 38 31 27 30 29 31 31 29 26 25 26 27 25 25 25 24 24 25 25 24
31 31 30 30 34 36 37 41 41 45 42 43 40 40 38 36 34 30 32 31 28 27 26 25 25 26 27 27 26 24 26 27
39 36 34 31 36 39 40 40 39 40 41 41 38 39 36 33 31 31 33 31 30 29 30 28 28 27 29 29 28 26 25 29
42 36 34 34 37 37 39 40 40 40 41 41 38 38 39 37 34 33 34 34 35 33 32 31 30 30 31 30 31 27 25 28
47 43 41 41 44 43 41 42 41 39 40 39 39 40 40 37 34 35 34 35 37 36 32 33 34 32 28 27 28 27 27 30
49 48 46 44 44 44 44 44 42 40 39 40 40 41 42 41 37 35 38 38 38 34 35 34 33 31 29 25 26 27 30 32
50 49 49 47 45 45 44 43 42 41 41 41 43 45 46 44 43 45 39 39 38 37 34 36 37 33 28 26 24 29 30 28
50 51 50 49 48 46 44 44 45 44 44 45 46 46 46 47 48 44 45 44 41 39 37 33 39 38 33 27 26 27 28 22
41 46 50 50 51 51 50 49 47 48 47 46 47 47 48 49 51 49 42 42 37 34 35 36 44 41 31 28 26 29 22 20
31 43 44 46 50 51 54 52 51 46 41 36 32 40 43 50 49 48 40 29 31 35 38 40 39 31 31 25 26 27 25 21
20 20 20 35 43 47 47 49 45 35 31 33 30 45 52 47 39 33 33 29 29 31 36 34 28 26 25 29 28 24 21 18
22 19 15 15 21 37 41 42 41 40 37 29 32 37 31 34 37 39 42 33 36 29 33 28 23 22 24 26 24 22 20 20
26 21 20 19 19 22 30 38 38 38 38 36 31 31 31 32 30 31 29 25 27 29 25 24 26 24 25 22 19 19 19 19
29 25 25 23 21 21 26 32 36 38 40 35 31 28 23 21 18 19 22 24 24 26 28 26 24 21 19 19 19 19 18 16
28 28 30 27 24 23 23 25 26 27 25 25 23 24 21 22 19 21 21 22 24 24 23 20 18 17 17 18 17 17 16 17
25 22 28 31 28 23 21 21 21 20 19 19 21 21 22 23 22 22 22 22 20 19 18 17 17 18 17 17 17 17 16 15

GFSFLT1_850_spd_075.txt.gz
Wind_Speed
14 11 11 14 15 17 20 28 31 35 41 41 37 36 36 35 35 33 30 28 27 23 19 17 17 16 15 13 12 11 11 9
15 12 13 16 18 20 23 24 22 33 41 42 38 37 34 35 34 30 29 26 22 22 20 18 15 16 15 14 14 16 15 13
19 16 18 19 20 24 29 25 26 32 39 43 38 38 33 34 33 30 27 24 24 20 19 17 18 17 17 18 18 18 17 17
23 20 19 19 24 25 28 24 25 30 40 41 38 36 34 32 30 28 27 24 21 21 19 19 22 21 21 21 21 21 21 22
24 21 19 20 23 25 26 25 26 31 43 43 40 42 36 36 30 26 24 24 24 24 23 25 25 25 27 26 24 25 26 27
28 26 21 21 23 26 27 27 30 33 42 44 42 41 38 37 34 30 27 29 31 30 31 29 28 27 27 26 28 28 30 31
28 27 25 25 25 27 29 32 34 36 46 47 46 44 41 39 37 36 35 33 34 35 36 33 30 31 31 31 29 30 31 32
32 32 33 31 32 33 34 35 39 40 47 49 47 48 43 43 41 37 37 37 37 39 38 37 34 34 33 33 31 28 29 31
36 35 37 36 35 37 39 40 43 44 47 47 45 48 47 45 43 41 39 38 38 38 38 36 36 36 36 34 31 29 28 28
40 38 38 39 39 41 44 43 42 44 46 47 48 47 46 45 43 40 38 38 39 38 36 35 37 36 37 35 31 30 31 27
40 40 41 42 42 41 42 44 44 44 45 46 46 45 44 43 42 40 40 40 43 44 41 39 40 39 38 37 37 38 32 30
40 42 42 42 43 43 44 45 45 46 47 45 44 42 42 42 42 44 43 44 47 42 38 39 36 34 42 38 38 41 31 30
36 41 43 42 42 43 45 46 48 48 44 40 34 20 32 36 46 45 39 44 41 31 36 42 41 44 44 38 37 34 32 33
31 37 42 43 43 44 45 46 48 47 45 43 42 43 42 43 46 45 39 39 35 37 43 40 42 39 38 45 42 35 30 28
33 35 32 33 35 37 42 45 45 46 47 45 45 42 45 45 44 41 41 30 36 40 45 39 38 40 37 34 34 29 31 28
30 32 29 26 25 26 29 35 38 40 40 41 42 41 44 41 38 36 38 43 41 39 40 36 34 31 36 28 26 29 29 27
30 32 28 27 24 23 26 29 32 34 35 37 38 36 36 34 32 31 33 38 42 39 35 34 29 24 22 26 30 27 22 21
35 32 31 30 26 25 26 27 30 33 34 35 36 40 32 27 23 21 20 27 27 26 24 22 24 26 26 23 22 21 21 22
32 39 37 32 29 25 24 23 25 28 30 34 36 33 23 18 18 19 20 20 21 22 24 25 22 20 19 19 19 20 20 19

GFSFLT1_850_spd_081.txt.gz
Wind_Speed
16 15 13 13 13 15 18 18 18 20 32 30 28 38 45 42 40 41 39 35 34 31 31 20 18 20 21 19 19 15 13 10
16 16 16 14 14 16 17 21 21 23 26 31 30 39 49 37 40 38 32 30 27 27 21 22 24 23 20 20 18 17 16 15
19 19 18 15 18 17 19 19 22 25 27 30 34 34 44 38 39 32 28 27 25 23 25 28 27 24 22 22 20 18 18 17
23 23 22 18 20 21 21 20 24 27 30 31 35 37 40 40 44 42 38 27 26 27 28 27 25 24 24 22 20 20 20 18
23 24 25 24 20 24 23 23 21 25 32 32 30 43 36 46 47 46 49 35 30 31 30 28 26 24 25 22 20 21 20 21
28 28 25 22 21 24 25 25 24 25 31 33 38 37 42 41 44 48 50 36 32 32 31 29 27 26 24 23 22 22 22 24
27 24 23 23 21 24 27 29 28 27 29 33 40 40 41 43 47 49 43 39 35 33 32 30 29 28 26 24 23 24 24 26
29 29 28 27 25 25 28 30 34 31 29 33 39 43 43 42 47 44 44 43 40 36 34 32 30 28 28 27 28 29 28 29
33 32 31 30 28 26 29 31 33 33 32 36 39 43 43 43 40 42 40 42 41 39 34 32 30 29 28 29 31 33 33 33
32 32 33 33 31 29 28 29 30 32 32 33 35 40 45 45 45 41 43 40 38 35 34 34 33 31 30 31 31 33 32 33
26 31 33 35 33 29 26 27 29 28 30 32 34 36 41 44 43 45 44 43 41 40 39 37 35 34 34 34 34 33 33 34
23 29 31 34 34 33 30 28 29 29 29 30 32 35 38 41 42 44 46 44 44 44 43 41 42 41 38 37 36 38 44 42
18 23 28 32 34 36 36 33 32 33 32 32 31 28 30 33 36 36 40 44 45 46 44 44 42 42 40 37 38 43 37 36
15 19 23 28 32 35 37 38 37 34 35 34 33 36 36 33 24 36 40 40 42 43 44 45 45 45 41 42 43 41 31 28
14 17 17 21 25 29 32 35 37 38 38 39 37 36 39 37 32 40 42 42 44 45 45 46 46 42 44 41 36 32 35 27
17 19 20 19 21 24 26 27 31 35 38 40 42 41 37 38 42 45 43 37 35 33 32 34 38 39 38 36 33 31 27 30
18 20 22 22 23 23 23 24 24 27 30 31 32 39 44 44 43 43 43 40 38 36 36 34 33 34 32 34 33 30 29 27
18 21 22 23 22 25 25 25 24 24 24 25 26 28 33 37 41 44 42 39 34 31 30 26 25 28 30 30 29 25 24 25
24 18 26 25 26 28 27 26 25 24 24 25 25 26 28 28 29 30 29 27 27 23 24 24 25 25 25 24 23 21 19 17

GFSFLT1_850_spd_084.txt.gz
Wind_Speed
16 16 13 12 13 15 14 14 12 16 18 24 32 40 45 45 37 35 34 33 31 28 28 27 28 24 22 21 18 16 15 13
17 17 16 14 14 16 17 16 15 19 21 30 34 45 47 42 39 37 38 37 41 40 37 30 26 24 22 18 15 15 18 14
20 19 18 16 15 18 17 18 19 21 25 26 35 40 48 44 45 40 36 36 38 33 31 32 27 23 22 21 20 19 16 17
23 23 20 18 17 20 22 19 21 25 25 29 27 39 43 41 43 38 44 33 34 36 32 27 23 24 27 23 21 20 15 16
23 23 22 21 20 20 23 23 23 26 26 31 32 43 50 45 45 47 43 36 34 33 32 27 31 31 28 24 22 21 18 16
24 25 22 21 20 22 25 24 24 27 30 30 33 39 50 45 43 46 44 35 30 31 31 29 28 29 27 22 23 24 22 19
23 21 22 22 22 23 26 27 27 28 31 33 33 41 43 44 46 47 51 43 31 29 26 30 29 28 26 26 25 24 24 23
25 26 26 25 26 25 27 29 29 29 30 33 33 34 44 48 49 52 56 42 33 25 32 32 30 30 30 26 26 26 26 27
28 29 27 27 27 27 29 30 31 29 30 33 33 34 34 41 44 50 45 42 41 29 32 32 32 30 29 28 28 28 28 29
27 29 29 27 28 29 29 31 32 31 33 33 32 34 36 34 38 43 47 39 37 34 34 35 33 33 33 31 29 30 29 28
25 30 30 28 28 28 28 29 30 29 30 31 32 33 35 34 35 39 44 40 37 33 36 38 36 37 35 32 33 33 29 30
23 27 27 27 26 28 30 30 29 30 30 29 30 32 35 38 39 39 41 40 38 36 37 37 39 39 36 34 34 34 33 32
18 22 26 29 30 29 31 31 31 31 30 30 31 31 33 39 45 47 48 49 46 46 46 42 39 38 37 34 32 34 37 38
14 19 25 29 31 31 30 32 32 31 31 32 32 32 35 39 42 44 45 45 45 38 35 38 43 42 40 39 40 42 43 37
12 17 22 25 28 31 31 29 30 30 31 32 34 35 36 37 35 33 35 33 32 32 33 35 38 39 40 41 42 41 38 39
11 16 19 23 25 28 29 29 31 32 30 32 35 34 34 34 33 33 35 33 29 28 26 26 26 28 31 32 34 35 36 35
12 15 19 23 26 27 29 32 34 35 36 36 32 33 35 34 32 30 27 26 27 28 30 30 31 31 33 30 31 33 31 32
12 15 21 24 26 27 28 29 29 32 33 32 31 30 31 34 32 26 25 25 24 26 25 29 30 29 28 24 25 30 32 32
17 19 17 22 24 27 25 25 28 30 30 29 28 28 27 25 27 27 29 33 32 30 27 26 28 27 25 26 27 28 29 28

GFSFLT1_850_spd_087.txt.gz
Wind_Speed
17 17 14 12 12 13 15 12 10 9 10 16 21 32 33 39 43 43 43 41 40 36 37 31 26 24 23 22 21 18 18 15
18 18 16 14 13 14 15 14 13 14 15 26 30 38 44 43 40 39 42 40 36 36 32 28 33 27 26 26 21 21 17 15
19 20 19 17 15 15 17 16 16 18 18 32 40 46 46 43 42 41 35 41 40 38 30 28 31 27 24 21 20 17 14 17
22 23 21 18 18 17 19 20 21 22 22 29 35 42 41 39 35 33 32 39 37 35 31 32 31 25 25 20 19 18 16 16
23 24 23 21 19 18 19 22 22 24 28 32 37 44 48 45 42 39 44 41 37 37 32 32 29 21 22 20 17 16 13 12
25 25 24 22 21 21 20 24 23 26 27 31 37 43 46 47 43 42 43 46 41 36 28 26 27 28 21 21 18 20 15 14
23 24 23 23 22 21 23 26 27 28 30 30 33 36 46 45 43 44 48 44 35 34 28 30 25 23 21 24 22 20 21 17
23 26 27 26 26 24 26 28 29 30 30 31 33 35 45 45 50 49 50 42 37 35 30 25 25 25 21 25 26 22 22 22
24 27 27 27 28 26 29 30 31 31 33 32 34 36 44 47 41 46 49 48 42 34 30 28 26 23 25 25 24 23 23 24
24 27 28 28 29 28 28 31 30 33 34 36 35 35 38 49 51 50 50 49 47 37 29 30 26 26 27 26 27 27 26 27
22 28 29 28 27 27 27 28 29 31 33 33 36 37 35 38 46 52 49 52 48 41 40 33 31 29 29 28 27 29 29 31
24 27 29 28 26 27 28 28 29 28 34 35 37 38 36 36 36 40 49 53 48 47 40 43 34 31 31 30 31 32 31 32
21 24 28 29 29 29 29 29 30 32 30 31 38 37 38 39 39 36 37 46 47 44 41 35 34 34 34 34 35 35 35 35
14 20 27 29 30 30 30 30 31 31 31 33 32 35 39 41 44 44 40 38 43 41 41 41 38 35 35 36 36 36 37 37
9 17 23 27 29 30 31 30 32 34 34 34 35 36 37 38 39 41 42 41 41 42 44 40 39 37 36 36 34 34 35 37
4 12 19 24 28 30 32 31 32 33 33 33 36 37 33 32 33 34 36 40 39 38 39 37 35 34 36 35 33 34 35 36
5 6 12 18 24 29 32 33 33 33 35 37 32 32 30 33 33 34 34 35 36 35 36 35 34 34 35 34 33 31 32 35
11 8 8 13 20 23 28 31 32 35 33 31 30 30 30 31 30 29 30 32 32 34 33 32 30 28 32 33 30 31 32 32
13 7 8 8 12 19 22 25 29 34 34 32 32 31 29 29 29 29 29 29 30 31 32 33 33 32 32 34 32 30 26 28

GFSFLT1_850_spd_090.txt.gz
Wind_Speed
18 17 18 16 16 20 15 13 11 8 8 8 7 9 14 26 29 37 49 56 54 50 48 42 35 34 31 30 27 23 22 17
22 20 20 18 20 22 16 15 13 11 12 12 11 18 27 34 39 44 45 52 53 50 42 37 32 32 28 28 26 21 23 18
24 24 22 21 22 19 16 16 17 16 15 16 18 23 27 32 32 39 53 50 47 47 37 34 32 28 27 26 24 24 24 24
28 27 25 23 24 20 16 18 18 18 22 26 31 33 33 33 32 25 31 36 40 40 41 34 31 34 36 30 29 26 28 27
31 29 27 26 22 19 17 21 22 21 24 28 35 42 42 37 34 36 37 37 36 30 31 30 33 35 30 28 26 25 22 22
31 31 28 24 24 22 20 24 26 24 25 35 44 42 36 34 39 34 35 33 31 34 33 38 40 33 32 29 26 24 23 21
28 31 27 26 24 25 25 27 30 27 29 36 40 38 36 37 41 37 37 37 41 42 37 32 35 32 32 29 26 22 25 23
25 34 31 29 31 27 29 28 31 30 31 35 38 39 40 39 43 40 38 41 45 43 38 33 29 31 29 25 30 26 24 24
26 33 32 32 33 29 31 31 34 32 35 33 37 39 41 42 46 44 46 48 51 43 40 36 35 29 28 29 28 30 27 25
20 30 35 33 34 33 31 33 32 34 35 35 35 38 43 41 49 47 52 52 47 46 44 40 32 31 31 31 31 29 28 29
26 28 36 35 34 33 33 31 32 34 36 37 36 36 37 37 43 54 51 50 49 47 43 40 36 32 32 31 32 31 30 31
26 27 36 34 33 32 32 29 35 35 35 38 39 37 37 37 42 46 50 52 53 48 45 43 35 36 34 33 34 33 33 32
15 27 35 34 36 33 33 31 33 34 36 36 38 39 37 38 40 43 47 47 50 53 53 47 38 34 36 35 36 36 34 35
6 26 30 34 34 33 35 35 34 34 31 37 38 37 41 41 39 39 41 46 48 54 53 54 47 42 40 42 39 37 37 37
3 8 22 31 32 33 34 35 34 36 34 32 34 39 42 44 41 40 39 38 46 48 51 49 50 46 42 41 41 38 38 38
8 10 16 23 30 33 33 33 34 35 37 35 35 31 37 39 42 43 40 37 37 42 41 45 45 44 41 36 35 36 35 35
8 5 10 19 23 29 33 34 34 35 36 39 36 34 33 35 36 39 41 42 41 40 40 41 43 41 40 41 38 36 34 34
6 6 6 8 17 23 29 32 33 34 36 36 36 37 39 38 37 38 39 41 42 43 42 42 42 41 43 39 37 38 40 40
7 8 9 6 7 16 24 27 32 36 37 38 35 36 37 39 38 39 40 39 40 39 41 41 39 39 38 37 36 38 38 42

GFSFLT1_850_spd_093.txt.gz
Wind_Speed
24 23 23 20 21 20 18 16 13 14 14 16 17 17 21 24 26 27 26 36 41 49 48 46 46 40 36 34 34 28 26 23
29 27 27 26 23 22 21 17 14 13 15 13 13 14 16 15 18 23 31 38 44 52 54 49 48 43 39 35 33 30 26 22
35 34 33 31 28 24 22 16 15 15 14 14 11 12 16 19 24 28 34 47 48 54 54 52 49 42 39 37 35 32 27 25
42 40 36 33 29 26 22 16 18 18 18 17 13 16 19 26 31 38 42 48 61 56 54 51 44 38 37 37 35 36 34 30
47 43 38 34 29 24 21 15 21 20 20 18 16 19 26 27 34 39 38 45 53 53 49 44 44 39 37 38 32 30 31 33
48 44 40 34 28 25 20 16 22 23 22 18 20 22 29 32 32 33 30 35 38 44 42 44 48 38 41 36 33 31 29 34
46 44 40 33 27 25 21 22 24 25 24 23 24 30 36 38 34 33 35 38 43 45 42 42 37 37 40 38 29 27 30 30
45 44 41 35 31 28 24 26 28 28 25 26 30 37 38 33 32 33 34 41 41 38 40 41 40 41 41 31 31 31 32 27
46 44 42 37 32 28 27 28 32 32 31 29 35 41 36 33 32 35 40 43 41 39 37 36 39 42 40 31 32 31 30 27
45 44 43 38 33 28 28 28 34 35 33 31 35 40 39 35 34 39 44 44 39 39 40 37 37 39 37 34 34 35 35 34
44 44 44 39 34 29 29 28 32 37 37 35 36 39 39 38 37 41 43 42 39 44 44 42 36 34 34 33 33 34 35 36
31 45 45 41 37 32 32 30 32 37 39 38 37 37 38 39 39 39 42 42 42 48 47 44 40 37 39 35 33 34 33 32
11 45 46 44 41 35 34 32 32 34 38 39 39 37 36 39 41 41 39 45 45 45 48 46 45 43 40 36 35 35 36 37
3 40 42 44 42 38 35 32 32 32 37 39 41 40 39 39 39 40 38 42 46 44 45 45 46 43 43 41 39 38 38 37
11 33 40 42 40 37 35 31 30 32 35 37 40 44 42 40 39 40 39 39 43 45 49 48 52 50 46 46 40 37 39 40
4 17 32 36 38 36 33 29 28 28 33 36 37 39 41 42 41 40 41 41 41 42 44 48 55 57 54 51 46 42 42 44
3 2 17 37 35 36 33 30 29 29 32 34 34 35 37 40 41 41 41 40 39 38 40 43 50 53 56 57 57 56 50 45
19 13 10 17 16 30 35 34 32 31 34 34 36 36 36 36 40 43 44 41 39 38 38 39 40 42 45 48 47 47 46 42
16 13 10 6 8 9 16 34 34 36 35 36 38 37 36 35 36 38 41 44 45 44 41 39 39 40 40 42 42 41 42 42

GFSFLT1_850_spd_096.txt.gz
Wind_Speed
36 33 36 32 29 27 23 20 17 15 15 17 20 23 26 25 28 31 31 32 33 40 42 41 42 41 41 47 46 40 38 30
32 38 38 34 31 30 27 22 18 16 16 22 22 23 26 26 26 29 33 35 36 39 45 45 47 46 44 45 47 38 32 34
35 43 40 37 34 32 27 22 18 15 15 18 20 23 25 28 30 28 29 39 45 46 50 49 52 48 45 43 46 39 34 36
41 46 43 40 37 33 28 23 19 16 16 17 20 20 20 21 23 29 37 34 41 47 51 54 55 49 46 43 42 39 37 33
45 50 47 43 39 33 27 23 20 18 18 20 21 21 22 22 22 24 29 34 38 47 53 55 57 48 46 43 40 40 37 36
43 54 50 45 39 34 29 24 21 18 19 19 19 19 21 19 23 24 29 37 43 47 51 60 58 50 43 41 41 37 36 33
39 53 52 46 39 33 30 26 21 18 18 20 20 22 22 23 27 29 28 36 42 50 57 61 57 49 46 39 38 40 36 32
38 48 53 47 41 36 32 28 23 20 21 23 23 23 24 25 29 30 30 35 37 43 44 47 49 46 46 40 40 35 34 32
44 53 56 49 42 37 33 30 25 22 22 21 21 25 25 29 32 34 35 32 31 37 42 40 43 46 44 45 38 35 31 27
47 49 53 49 43 38 34 30 26 24 24 24 24 26 30 34 33 32 32 34 37 40 39 42 47 49 46 45 39 35 29 31
38 48 50 47 42 37 34 29 26 24 25 28 26 28 32 36 33 29 30 30 35 39 40 38 35 41 43 46 47 36 31 33
34 46 47 46 44 39 34 32 29 26 27 31 30 30 33 38 32 30 29 30 35 39 38 37 37 38 38 41 45 37 35 38
26 34 41 44 43 39 36 34 32 27 28 31 33 33 36 37 36 33 32 33 36 38 39 38 38 37 39 40 42 40 38 36
15 33 39 42 42 39 37 34 32 29 27 31 35 36 37 39 39 36 35 35 38 41 41 43 44 43 40 39 39 39 37 36
10 30 37 42 42 41 37 34 32 30 27 30 37 38 38 38 36 37 38 39 41 42 42 42 49 47 48 47 44 44 43 42
14 23 30 33 36 37 36 34 32 31 29 30 36 38 38 38 38 37 38 41 42 40 41 45 46 51 52 50 49 48 48 46
16 14 17 22 30 34 35 34 33 31 31 32 30 35 39 40 39 39 38 40 42 42 41 42 47 49 50 52 50 51 48 45
24 27 20 10 12 16 25 29 30 32 33 31 31 33 36 38 41 40 41 42 40 43 42 42 44 45 46 46 49 51 52 51
20 19 18 16 13 9 16 24 23 30 34 34 32 31 35 37 37 40 42 40 41 41 42 42 41 40 41 42 44 47 51 55

GFSFLT1_850_spd_099.txt.gz
Wind_Speed
32 32 34 41 43 42 39 36 30 24 19 21 24 26 27 28 28 28 28 28 27 28 23 34 34 36 42 48 50 41 33 32
33 28 29 41 42 42 42 37 31 25 23 23 25 27 28 28 29 30 27 34 30 30 33 38 41 38 43 46 49 42 35 32
28 26 34 38 39 42 42 37 31 25 23 21 22 23 24 27 28 28 25 35 39 31 38 42 39 42 45 48 50 42 37 33
25 25 39 41 42 44 41 37 31 25 22 19 20 22 23 26 28 27 26 32 38 35 39 42 43 46 49 49 52 47 41 36
24 30 42 45 45 44 40 35 30 24 21 21 19 22 24 27 28 31 31 26 34 32 40 46 47 51 48 49 51 48 43 39
20 32 41 50 49 47 41 35 30 25 21 21 20 22 20 20 23 24 25 32 28 36 38 48 53 52 48 51 54 47 41 41
20 28 37 49 46 46 40 36 30 26 21 21 21 19 19 18 20 23 23 26 28 31 41 51 53 53 55 50 49 45 40 40
23 30 35 47 51 46 42 36 32 26 21 22 21 20 17 18 19 20 21 21 26 34 35 46 53 55 55 51 46 38 37 38
30 31 37 44 52 49 44 38 33 27 23 23 23 20 19 19 20 21 19 19 27 32 40 41 51 54 54 45 42 40 42 33
25 34 37 43 48 52 46 39 33 27 24 24 24 23 22 21 21 22 21 22 24 27 35 42 47 51 48 48 44 41 33 35
13 32 38 42 46 50 46 38 31 27 25 24 24 23 23 22 23 26 25 23 26 29 30 35 40 37 38 40 43 41 38 39
11 20 27 33 45 51 45 39 32 28 27 26 25 25 24 24 26 26 27 26 27 29 32 38 45 48 47 47 47 46 45 38
19 18 22 30 41 48 45 39 34 29 27 28 27 24 25 26 29 30 26 24 25 27 32 34 34 41 44 46 49 49 47 46
33 4 26 29 38 43 44 39 35 30 27 28 29 28 27 28 29 31 28 25 23 23 27 33 34 36 38 43 47 51 52 49
40 16 20 27 33 41 41 38 36 32 28 27 29 30 30 29 28 31 31 29 28 27 29 32 35 36 35 37 40 42 44 45
33 14 11 19 26 31 33 33 34 31 29 28 28 29 28 30 31 32 32 33 32 32 31 35 37 37 36 39 40 41 42 42
23 20 13 8 10 19 26 29 31 30 28 27 26 27 29 31 32 33 33 33 35 35 38 38 41 44 43 44 45 46 45 45
18 19 17 14 6 9 15 21 23 25 28 28 27 26 28 30 33 34 35 35 35 37 40 41 43 44 43 43 46 50 51 51
15 18 18 14 13 2 6 13 15 18 24 26 25 25 25 28 30 33 35 36 37 37 40 41 42 44 41 41 43 45 48 50

GFSFLT1_850_spd_105.txt.gz
Wind_Speed
21 19 19 21 22 25 28 30 35 42 40 33 32 28 27 25 25 24 25 27 28 28 27 26 32 29 32 34 36 37 38 36
18 17 19 22 23 24 23 29 34 42 43 39 36 33 29 27 26 24 23 24 25 28 27 27 26 27 40 42 45 44 40 37
15 19 19 21 22 24 24 26 30 39 44 41 38 33 28 26 26 23 24 24 24 28 25 27 27 30 45 46 48 47 41 38
18 21 21 19 21 25 25 23 29 34 43 42 38 31 28 26 28 26 25 26 26 29 24 28 25 30 48 58 54 50 46 39
17 22 24 22 21 22 26 25 28 33 43 43 39 33 29 27 25 29 28 30 29 28 23 30 28 31 44 53 51 46 46 41
18 21 22 25 22 21 26 25 26 33 41 43 37 32 27 24 23 26 29 29 27 22 27 22 33 39 41 42 44 44 42 42
20 24 23 25 23 21 25 26 27 34 40 42 35 30 26 24 23 25 27 27 28 32 22 28 25 41 44 45 45 50 49 46
21 24 28 25 27 25 25 26 30 35 40 39 35 28 24 22 21 22 26 30 31 22 21 32 27 40 43 45 44 46 48 46
20 25 28 28 31 24 26 28 31 36 39 39 32 26 23 22 18 19 21 27 30 31 26 29 27 34 45 48 49 52 49 47
25 24 29 33 30 24 26 29 33 35 39 38 31 25 22 21 16 17 16 17 20 26 29 31 27 27 47 46 51 49 47 46
29 24 34 40 31 22 24 28 32 33 38 35 31 22 21 19 17 19 18 16 18 21 26 28 27 31 41 49 51 47 47 48
30 28 48 43 29 19 23 28 31 33 37 36 29 22 21 20 19 19 18 16 14 16 18 19 22 31 36 45 49 57 53 51
30 36 52 41 13 17 23 26 28 34 35 34 26 22 22 22 21 20 18 16 11 11 15 16 16 21 28 37 45 48 57 53
37 40 47 36 9 16 21 24 30 32 31 30 24 23 23 22 22 21 18 16 13 11 11 14 14 16 23 33 38 42 53 52
30 38 43 39 11 17 18 23 27 29 27 25 21 22 22 21 21 21 20 19 18 15 14 14 16 17 22 29 35 35 37 47
25 29 34 31 11 5 9 19 23 25 23 20 18 19 21 20 20 21 21 22 20 19 18 18 17 21 18 32 36 41 44 46
18 13 16 24 18 6 11 15 21 20 18 15 11 10 19 20 19 19 21 22 24 22 21 19 19 22 26 29 35 43 45 45
24 25 27 24 19 10 10 16 16 16 12 10 9 7 7 16 18 19 20 21 22 25 24 22 22 20 17 22 27 33 38 43
22 23 22 24 21 16 10 15 11 11 10 6 2 7 7 8 10 19 19 19 21 22 24 24 24 24 22 22 22 27 30 32

GFSFLT1_850_spd_108.txt.gz
Wind_Speed
19 16 13 14 16 19 21 23 28 28 31 38 38 36 34 31 29 27 25 28 29 32 32 30 29 31 28 28 36 44 53 42
17 11 11 15 20 24 25 25 26 25 35 41 42 41 38 35 32 29 27 27 28 31 32 29 29 28 30 25 35 46 41 40
11 9 9 11 18 20 23 24 24 24 33 39 40 43 39 36 32 30 27 26 26 27 28 29 26 26 32 31 37 32 37 42
7 6 8 11 13 17 20 20 21 24 25 33 34 37 36 37 34 31 27 25 24 25 25 25 27 23 30 38 40 45 52 46
5 7 10 11 14 16 18 18 20 24 26 33 40 42 40 36 33 30 27 26 24 26 24 25 23 24 31 37 42 51 53 49
4 7 11 14 15 14 14 15 19 23 28 36 37 29 25 22 21 23 25 25 25 27 26 27 26 24 27 32 47 52 56 49
7 9 11 14 14 15 12 15 19 22 29 35 33 29 25 24 24 23 23 25 27 29 26 24 25 25 30 27 48 52 50 46
8 12 14 14 16 15 14 15 19 22 28 34 31 28 27 23 20 18 20 26 30 28 28 25 25 27 25 30 44 51 46 44
9 13 16 18 20 19 15 17 19 23 26 34 30 29 23 20 20 19 20 24 22 29 24 26 27 25 32 35 42 49 51 51
14 19 16 16 25 24 20 18 21 25 24 33 36 31 23 18 17 17 16 16 22 27 30 27 22 30 35 42 47 51 51 49
18 20 21 22 27 29 23 20 24 26 25 33 32 30 22 18 16 17 16 17 19 23 28 28 29 29 32 46 50 50 49 46
17 22 23 26 27 27 20 22 25 27 26 31 29 29 22 20 17 17 17 15 15 17 22 25 28 30 30 34 41 52 48 46
18 22 26 30 28 16 10 18 24 27 25 27 30 29 23 22 21 18 19 18 15 15 17 20 27 28 29 33 37 46 48 49
18 23 30 35 27 14 10 15 21 25 24 28 32 31 26 24 22 21 20 19 17 15 14 18 18 21 24 28 34 38 46 50
19 23 28 37 31 19 9 15 21 24 22 28 30 29 27 25 22 21 21 19 19 16 14 13 14 13 15 16 24 35 40 44
21 23 26 36 36 21 4 16 19 21 24 28 24 25 25 20 20 20 20 19 18 17 17 15 12 13 13 14 18 24 29 36
20 24 26 30 36 25 8 13 22 21 22 20 20 22 26 23 19 18 19 19 19 17 17 15 14 13 15 12 10 18 24 27
22 23 25 27 29 23 11 15 20 14 15 14 15 13 20 21 18 18 18 18 19 21 19 18 17 15 13 14 17 21 27 29
20 21 21 22 23 17 5 19 19 18 19 17 15 14 12 13 17 16 16 16 18 18 19 20 19 19 17 15 17 21 31 32

GFSFLT1_850_spd_111.txt.gz
Wind_Speed
19 20 21 20 20 20 19 20 23 25 23 25 25 27 27 27 28 27 27 27 26 28 25 26 26 28 28 27 28 27 30 38
20 19 10 13 16 17 19 19 22 24 23 26 31 43 36 34 24 23 23 24 26 28 27 26 30 26 25 26 25 26 28 35
22 16 13 14 16 17 19 20 20 24 25 26 35 40 37 37 33 28 25 25 24 24 28 31 32 27 25 24 21 29 34 42
19 12 12 13 14 12 15 19 21 22 24 27 33 30 33 35 38 36 31 29 27 25 26 28 31 28 27 24 25 29 38 44
12 12 12 10 9 9 11 14 18 21 24 27 30 38 35 35 36 35 30 29 26 25 25 26 26 27 26 23 28 28 38 46
12 9 8 8 8 10 12 13 15 19 24 27 31 36 26 22 23 26 32 30 27 26 24 26 25 24 24 21 32 33 47 45
6 5 6 8 8 10 12 14 15 18 24 25 34 31 25 24 24 24 27 26 25 28 27 26 26 24 24 25 29 33 50 46
3 5 8 11 13 13 15 15 18 19 24 25 36 33 28 25 24 24 22 22 23 26 27 29 28 26 26 25 29 29 44 48
4 7 10 13 14 17 20 19 20 21 24 29 31 31 32 29 26 22 20 19 20 23 26 29 26 26 22 23 27 31 40 50
7 10 12 15 17 22 23 24 24 24 26 29 30 36 34 32 25 22 20 16 15 21 28 26 26 26 24 21 27 30 39 49
9 10 14 17 20 25 24 27 27 27 28 30 30 38 36 28 26 23 19 17 18 20 20 25 23 20 21 24 28 29 39 43
9 11 15 19 21 24 25 26 23 26 31 32 31 40 36 28 26 24 19 17 18 16 19 24 26 25 23 23 30 35 40 45
12 15 19 20 24 28 25 20 13 23 29 30 31 37 35 29 27 23 19 17 17 15 17 17 23 24 23 23 30 36 42 45
15 18 20 21 25 27 26 19 14 20 26 30 27 30 32 31 24 22 20 21 18 15 17 17 20 22 20 22 25 27 37 45
15 17 20 21 24 29 26 19 15 20 24 24 26 31 28 29 24 21 22 21 19 17 15 13 15 15 18 21 22 27 31 35
17 20 22 23 26 31 30 18 12 19 21 24 30 34 28 23 22 21 21 22 20 17 17 15 11 11 12 15 15 17 23 29
17 18 21 23 26 33 33 23 9 17 24 27 32 29 29 23 23 22 21 23 20 18 17 17 15 13 9 9 11 12 14 21
18 20 21 22 27 32 32 23 11 20 23 26 25 28 28 24 22 21 20 20 20 20 18 18 16 12 9 11 10 9 12 14
19 21 21 22 24 27 26 15 4 15 20 19 20 22 25 25 21 19 19 18 18 18 17 17 15 14 11 10 9 11 11 13

GFSFLT1_850_spd_114.txt.gz
Wind_Speed
36 34 31 28 28 27 23 24 25 26 26 23 28 29 28 31 30 29 33 28 28 28 26 24 22 21 24 27 28 24 23 24
19 20 22 21 22 21 13 13 15 24 27 28 27 31 32 32 33 32 36 30 30 28 27 25 28 28 27 25 25 24 25 19
18 21 23 19 13 10 11 13 16 17 24 29 29 31 32 34 33 33 27 26 28 28 28 27 27 26 26 24 22 22 25 22
22 24 20 15 10 10 12 16 18 21 25 26 25 31 37 40 38 34 29 31 29 29 25 28 27 29 28 26 23 25 25 28
19 18 16 10 9 8 12 12 15 18 22 28 31 38 41 41 39 35 34 32 29 30 24 26 26 27 28 27 26 25 24 28
15 13 10 10 8 10 7 10 13 14 19 26 33 38 38 34 30 32 37 33 33 30 28 30 27 26 24 25 27 26 23 29
10 10 7 4 7 6 9 10 12 14 16 21 31 35 36 32 28 26 31 36 34 32 31 31 27 25 25 26 22 23 26 25
8 8 6 0 4 7 4 10 16 14 18 22 24 30 34 29 28 29 27 35 37 36 33 32 28 26 27 24 25 24 25 29
8 7 6 6 10 12 15 17 15 22 19 22 29 32 32 30 30 30 33 32 33 32 31 31 28 26 24 23 23 25 24 31
10 9 7 7 10 14 20 23 21 24 26 22 30 35 34 33 34 26 36 29 23 28 29 28 28 29 24 22 23 27 25 31
7 6 8 8 12 18 24 25 24 28 29 28 31 36 32 30 38 29 32 30 27 26 24 26 27 29 25 25 21 23 26 28
16 11 10 11 14 23 27 31 33 25 25 28 33 36 31 32 37 28 30 28 25 27 22 23 28 26 25 23 23 22 24 27
15 14 15 17 19 23 30 33 34 24 22 14 31 31 27 31 36 30 33 30 26 24 20 22 25 23 23 22 22 19 25 27
17 18 20 19 21 24 30 32 33 25 20 19 26 28 27 35 35 29 33 25 24 23 20 19 20 23 23 23 22 20 23 26
21 21 21 21 22 24 30 33 31 24 19 22 26 25 25 34 31 30 33 24 25 23 23 21 16 15 18 21 22 24 21 23
19 21 24 24 25 29 32 34 31 22 18 20 24 23 23 30 32 31 28 26 27 24 23 19 15 13 16 19 19 18 19 21
18 19 22 22 26 30 33 35 31 20 18 20 22 23 24 30 32 29 25 27 26 22 20 18 15 13 11 13 16 17 16 15
16 17 20 21 24 27 30 31 28 21 16 18 21 22 27 30 28 28 28 28 25 23 22 18 15 11 10 8 10 10 12 12
15 17 21 19 21 24 25 25 22 17 8 15 22 24 30 26 29 27 27 30 24 20 17 17 15 13 10 9 9 9 8 9

GFSFLT1_850_spd_117.txt.gz
Wind_Speed
39 36 36 35 36 31 36 35 38 38 36 30 24 24 32 30 31 30 27 26 29 31 31 29 27 25 25 26 26 26 27 24
44 40 34 31 28 36 35 34 39 40 37 32 27 24 28 34 36 33 33 30 28 30 32 29 27 27 27 27 27 27 28 25
44 44 37 31 24 24 19 14 29 32 29 27 26 21 23 30 31 34 35 35 32 28 32 35 32 30 28 26 27 29 28 26
20 25 28 26 24 23 20 16 12 13 15 19 23 23 24 30 31 36 38 37 35 31 33 36 35 33 33 28 28 28 30 28
19 13 26 27 23 22 19 16 16 14 8 24 26 29 32 35 37 38 37 35 31 30 31 32 35 36 35 29 27 28 27 28
17 17 25 12 9 10 9 12 13 13 15 12 18 31 33 36 36 40 39 34 33 34 33 32 32 34 35 31 29 28 28 29
22 24 21 21 19 16 12 9 5 5 7 12 20 19 32 38 38 39 35 31 40 38 36 36 34 33 31 31 28 30 29 29
29 30 23 19 16 14 11 6 4 10 15 12 15 19 26 35 37 36 33 28 34 47 42 39 36 35 30 28 27 28 30 27
28 20 16 14 9 5 3 5 10 15 21 24 25 19 22 32 31 30 30 30 30 34 43 41 36 35 31 28 28 29 27 28
26 21 18 12 10 13 16 16 20 22 23 26 29 31 25 32 34 31 31 31 33 30 34 38 36 35 32 29 30 29 27 28
30 25 18 10 9 13 18 23 26 27 28 29 28 29 31 28 36 35 30 37 33 33 29 33 36 34 33 29 32 29 26 28
24 18 12 8 8 13 18 22 26 29 30 30 28 29 30 33 35 35 31 33 31 34 32 28 32 32 31 31 28 28 29 26
18 13 12 12 14 17 21 26 26 30 31 30 25 22 21 29 32 29 33 33 35 32 27 25 27 32 32 33 29 30 27 26
18 18 20 19 21 24 25 27 30 32 32 27 23 20 22 28 24 25 34 33 37 31 27 26 26 27 31 31 27 27 26 24
22 22 21 23 24 26 29 31 34 35 34 25 22 22 23 22 24 28 34 35 35 28 26 24 25 26 28 28 29 25 23 20
23 25 25 26 26 28 31 34 37 37 34 26 21 20 23 23 24 29 31 38 32 29 25 25 24 21 25 28 27 24 22 21
25 22 24 25 26 30 33 35 38 37 34 29 22 19 22 23 24 30 35 36 30 26 26 25 23 21 22 23 23 23 20 18
19 20 24 25 27 28 30 33 34 34 31 27 22 19 23 24 24 30 36 34 27 29 27 24 21 18 18 21 22 21 20 19
17 20 23 24 25 26 27 28 28 28 27 24 21 15 21 21 24 28 37 28 32 27 26 23 20 18 17 18 18 17 16 14

GFSFLT1_850_spd_120.txt.gz
Wind_Speed
33 33 33 31 32 31 33 33 39 40 41 39 34 30 27 26 28 27 25 23 24 26 26 25 25 25 25 25 25 25 26 25
37 35 34 39 38 35 36 32 36 43 47 44 40 35 30 29 29 29 27 26 25 25 27 28 28 28 28 27 27 26 27 26
36 38 38 40 37 40 39 38 37 43 45 47 41 33 27 27 29 27 29 29 28 27 28 30 31 32 31 31 30 30 30 28
36 39 40 40 35 30 28 26 31 41 45 45 36 28 25 29 33 30 30 33 32 30 28 26 33 35 33 32 32 31 32 30
32 32 33 25 22 21 20 20 23 28 32 29 29 29 30 28 28 30 29 32 33 33 30 29 30 38 39 35 33 31 31 31
17 30 33 29 30 30 30 27 23 20 17 14 14 28 31 28 28 28 28 31 31 31 33 30 32 36 41 39 36 34 31 33
37 37 34 31 28 27 24 22 19 15 11 11 10 10 13 28 34 33 31 32 31 31 34 34 34 37 37 39 37 33 33 31
34 31 31 26 22 21 19 15 11 8 8 8 9 10 11 16 20 27 31 32 34 37 37 38 39 39 34 34 37 37 35 32
25 24 24 22 19 15 10 5 2 8 11 14 15 17 19 21 23 25 27 31 32 34 34 34 38 39 34 34 35 33 35 31
37 30 24 20 15 12 8 6 10 16 21 23 24 23 23 29 31 28 28 30 33 32 31 32 33 40 38 35 36 33 31 29
29 26 22 17 12 9 9 10 12 18 23 27 27 26 28 29 33 33 33 32 33 31 31 34 33 31 38 38 37 33 30 30
23 21 18 16 14 13 14 14 16 19 22 28 29 28 29 30 31 32 38 33 35 33 31 34 35 28 31 37 37 33 28 31
23 20 17 18 18 18 21 22 21 22 23 26 28 28 29 29 25 30 34 34 34 36 34 36 33 33 29 35 36 34 28 32
24 24 26 23 21 21 22 21 21 23 25 27 27 27 26 25 22 19 25 30 34 36 33 34 36 33 29 32 31 31 32 28
16 23 22 21 22 22 23 24 24 27 29 29 28 25 23 22 22 17 24 26 30 33 36 33 34 28 28 28 30 31 31 31
20 22 24 25 25 26 27 28 28 30 32 33 32 26 22 21 24 21 22 25 28 33 37 36 35 28 27 27 28 29 28 28
19 23 25 26 28 30 30 31 31 31 32 33 33 26 21 18 21 22 23 26 28 34 38 34 30 26 25 25 26 28 27 27
18 20 23 24 26 28 30 31 30 30 31 31 32 28 23 19 20 21 26 28 29 36 40 36 29 25 22 21 25 27 27 26
18 21 21 22 23 26 28 30 31 31 31 32 32 30 25 22 20 24 28 28 31 42 38 37 26 26 22 22 24 25 24 21

GFSFLT1_850_spd_123.txt.gz
Wind_Speed
41 29 36 44 47 48 44 41 37 35 37 36 35 35 34 31 28 28 26 25 23 22 23 24 24 25 25 26 25 24 23 21
42 36 34 31 32 34 44 39 33 36 42 43 41 39 36 32 29 27 26 25 24 23 23 23 26 27 27 26 25 25 23 22
37 35 36 35 35 36 36 38 35 36 41 42 44 43 38 35 28 23 24 27 25 24 23 23 26 28 28 28 27 28 27 25
40 34 35 34 33 39 41 38 36 35 41 46 47 43 42 32 27 26 26 25 27 26 25 23 24 27 28 31 32 31 30 28
28 19 24 28 34 38 41 32 36 40 42 43 42 42 39 35 30 26 25 26 28 28 28 25 25 26 26 31 33 32 32 32
15 14 17 19 22 25 25 25 27 31 33 30 30 27 28 25 27 27 26 25 29 31 30 27 29 31 30 29 33 37 36 35
28 39 41 40 38 35 33 30 27 23 23 24 26 23 31 33 31 27 27 28 28 30 32 29 27 30 32 31 30 36 39 35
31 42 41 37 36 33 30 25 23 18 16 14 13 15 16 21 23 27 31 31 32 33 34 33 31 32 34 33 33 34 38 37
31 33 35 32 31 27 23 19 16 12 8 5 6 10 14 17 19 22 25 28 30 29 32 35 35 33 33 34 36 37 35 39
29 30 28 28 25 21 16 13 10 6 3 3 7 12 15 18 22 26 31 30 30 31 30 34 35 33 33 33 37 40 35 33
27 27 25 22 20 17 12 9 7 8 9 11 13 13 15 17 21 23 28 31 33 34 34 32 33 35 32 31 34 39 34 34
27 27 22 21 19 16 14 8 6 10 14 16 18 20 21 21 22 26 29 31 33 38 38 35 34 31 32 34 33 40 38 36
25 28 26 22 17 14 12 10 11 14 17 19 22 24 25 26 27 27 28 31 33 37 38 37 34 32 32 33 34 34 37 38
25 28 26 24 24 23 21 20 18 17 18 19 21 22 25 25 27 27 26 24 25 31 37 37 35 35 34 33 34 33 33 39
24 29 28 28 28 27 25 24 22 21 21 22 22 23 26 26 27 25 23 22 19 26 34 35 35 35 35 34 35 33 33 34
32 30 27 25 27 27 26 25 27 26 25 25 26 26 26 25 26 23 22 24 22 26 29 33 34 35 36 37 34 33 33 30
23 21 22 23 27 26 27 29 28 27 28 27 27 28 27 24 23 22 23 27 25 25 29 31 34 36 35 34 35 32 30 31
16 19 21 23 24 25 26 27 27 28 29 29 29 29 29 25 22 21 20 23 25 26 29 31 32 39 34 36 30 28 30 30
16 19 22 24 25 26 26 26 27 28 30 32 33 33 32 28 23 21 20 23 25 26 29 30 37 35 35 30 28 29 29 27

GFSFLT1_850_spd_126.txt.gz
Wind_Speed
41 42 43 45 52 52 47 45 42 41 42 42 42 41 38 36 34 32 30 29 28 26 25 23 23 25 24 24 24 23 23 22
39 39 45 43 48 51 52 46 44 45 45 43 42 42 40 38 36 34 30 29 26 25 24 22 23 26 25 24 24 25 25 23
40 43 46 44 45 50 57 52 46 47 47 43 44 40 39 38 36 34 31 27 26 26 25 23 24 25 26 25 26 26 26 24
39 41 46 44 42 35 42 43 43 47 49 47 45 42 40 39 38 37 32 29 26 25 23 24 25 25 26 24 27 27 28 27
42 39 36 41 45 42 40 41 43 44 46 44 44 43 42 41 41 37 31 27 24 22 25 24 25 26 26 26 27 26 28 32
31 28 26 27 26 27 30 35 39 41 38 38 39 38 37 36 34 33 32 25 22 24 26 26 27 28 25 25 24 25 28 32
27 26 24 22 17 19 23 28 33 33 33 29 29 27 30 28 27 29 33 23 24 29 27 27 29 28 28 28 29 28 30 29
36 38 39 37 35 33 30 29 28 24 24 25 24 23 22 25 21 24 23 27 36 34 33 33 34 32 33 29 32 31 31 29
39 40 41 39 35 35 33 30 29 25 22 19 16 14 13 13 17 22 22 40 46 40 40 36 34 35 35 35 33 31 31 33
35 35 34 33 31 31 29 26 24 20 15 12 11 9 10 12 14 17 24 29 30 31 34 35 37 37 36 36 36 34 33 32
32 31 31 29 27 27 23 20 19 16 11 7 3 4 8 12 15 20 24 29 34 35 36 38 39 39 39 37 37 35 32 33
30 28 27 27 27 25 24 21 17 12 10 9 10 11 11 13 16 20 24 29 33 35 36 40 42 43 41 39 37 37 34 33
31 29 26 29 31 27 22 21 17 15 12 12 14 16 17 18 19 20 24 28 31 33 34 37 42 44 42 40 37 34 36 34
27 27 34 36 31 25 23 21 20 16 14 13 13 14 16 19 21 23 25 27 30 31 32 34 40 42 43 41 37 32 34 38
34 37 35 34 32 28 24 22 21 19 18 17 17 18 19 21 23 24 26 25 27 29 28 28 31 36 40 40 38 36 35 36
32 32 32 31 29 27 25 23 23 24 25 25 24 22 21 22 24 25 26 26 26 27 29 27 27 33 37 36 36 35 36 36
27 28 29 29 27 25 23 24 27 25 25 25 27 27 25 25 25 25 24 25 25 26 28 27 27 27 32 33 34 35 37 34
26 28 26 24 25 25 27 29 28 27 28 29 30 30 31 30 28 25 22 21 24 24 29 27 27 32 32 32 35 31 33 34
26 25 22 24 24 26 26 28 28 29 29 31 33 34 35 33 31 28 23 21 22 24 26 27 28 29 29 30 27 30 32 35

GFSFLT1_850_spd_129.txt.gz
Wind_Speed
35 44 40 35 38 42 40 44 54 52 50 47 43 42 41 40 37 34 32 31 31 29 28 27 26 27 27 27 26 25 24 21
43 38 47 39 39 44 42 41 51 55 55 52 49 47 46 43 40 38 36 34 33 31 31 29 29 29 28 28 27 27 25 23
50 40 44 45 40 42 44 44 43 53 56 53 51 47 46 44 43 42 40 38 35 32 32 31 29 28 28 29 30 29 26 26
46 44 39 48 42 41 44 44 44 51 54 53 50 46 43 44 45 44 43 39 35 33 33 31 29 28 28 28 30 30 29 27
46 47 34 37 41 40 40 44 46 47 54 53 50 46 45 44 43 44 40 38 34 30 31 30 28 26 28 28 28 28 28 31
37 33 31 30 34 34 36 41 40 45 50 50 47 45 43 41 39 37 36 35 34 32 30 23 23 26 28 30 27 28 31 31
6 11 12 17 20 26 32 34 37 36 37 38 36 38 37 34 31 30 30 34 36 33 35 29 35 28 31 30 31 30 31 31
25 24 22 20 23 29 30 29 29 27 28 29 28 26 25 26 26 26 25 26 28 33 25 30 31 32 35 38 35 33 33 35
35 30 28 26 24 35 31 29 28 25 25 25 25 23 24 23 26 24 23 23 21 20 20 25 30 34 40 44 39 36 33 35
33 33 35 27 33 38 35 31 29 26 23 20 19 19 18 20 21 22 23 25 25 25 26 31 38 42 43 45 43 39 37 36
32 34 31 30 34 33 29 29 25 25 22 19 16 14 12 14 15 17 20 23 26 30 31 34 37 38 37 38 41 40 40 39
33 31 31 32 32 30 28 23 18 20 16 14 11 9 8 8 10 15 20 24 27 31 34 36 38 39 40 41 42 41 42 39
32 35 33 33 31 29 29 26 24 21 16 12 5 2 4 9 12 16 20 24 29 32 34 37 39 40 41 44 44 44 42 42
37 38 37 34 31 30 28 27 27 24 22 18 12 9 7 9 13 15 19 22 25 28 33 37 38 38 40 43 46 43 43 42
33 35 36 34 29 29 29 30 25 21 19 19 17 15 12 11 13 17 21 24 26 28 29 33 37 38 37 39 42 41 43 45
38 38 38 36 40 37 33 32 26 21 18 20 23 21 20 18 17 19 21 24 26 28 31 32 33 33 32 31 33 38 43 45
34 35 38 38 37 34 33 30 28 25 24 25 27 25 23 22 21 20 20 21 23 25 28 31 31 32 32 32 32 37 41 42
34 34 35 34 33 31 32 31 29 28 30 29 27 26 26 26 26 25 24 23 23 22 24 26 29 29 32 29 29 36 38 40
30 30 29 27 26 27 27 27 27 28 28 29 30 30 30 30 29 28 26 24 22 21 22 22 26 29 28 26 30 29 34 38

GFSFLT1_850_spd_132.txt.gz
Wind_Speed
39 39 36 36 36 33 30 33 36 38 45 48 41 30 33 30 35 41 40 41 39 39 35 32 30 23 26 29 28 22 22 18
35 44 39 37 39 37 35 34 38 38 42 51 50 46 44 35 34 38 37 40 41 40 36 31 31 26 26 30 30 29 26 20
36 35 43 39 40 38 38 37 40 40 41 52 54 52 45 42 40 37 38 38 39 39 36 27 28 25 25 30 31 30 27 28
39 38 37 41 40 41 38 39 41 41 41 41 49 44 30 28 30 33 33 35 38 36 33 28 24 26 25 29 29 30 28 30
43 45 43 40 42 39 37 38 41 42 40 42 48 54 42 38 40 29 29 33 31 31 32 31 30 29 27 25 25 28 25 28
37 29 30 36 35 36 33 37 38 41 40 41 44 49 47 33 27 27 32 34 31 33 33 34 32 28 21 15 18 22 28 30
29 26 16 6 8 20 25 27 33 40 42 40 39 41 31 29 30 32 29 29 30 33 37 38 35 28 13 14 28 25 25 31
29 27 23 18 15 8 9 23 31 32 38 40 36 31 32 33 30 31 29 24 26 30 36 37 38 32 36 39 42 41 30 33
33 29 26 26 24 22 18 16 25 33 33 35 34 38 38 31 29 25 24 21 22 24 32 33 33 36 31 28 32 34 34 41
38 34 32 30 28 26 23 22 25 27 26 24 23 26 25 22 20 22 24 27 29 28 27 28 33 32 31 33 36 34 33 41
39 36 33 31 30 26 25 26 25 24 21 18 18 17 15 17 20 21 25 27 27 26 27 32 33 35 37 41 44 43 45 47
37 35 35 35 31 28 27 28 26 24 16 15 19 16 16 15 14 13 16 20 24 27 28 31 34 35 36 39 43 44 45 44
37 37 34 34 33 31 34 32 30 26 21 18 14 11 10 11 9 8 10 13 18 22 26 29 31 34 36 38 40 43 45 45
42 44 44 42 40 39 36 32 29 25 24 23 17 15 11 6 2 3 7 14 18 23 26 30 33 34 36 37 37 36 38 42
38 41 41 41 39 38 37 32 29 26 22 20 17 15 15 12 8 8 11 15 20 23 25 30 33 35 35 35 33 33 35 37
34 35 35 37 37 35 33 29 29 25 20 22 20 16 15 14 13 13 14 17 20 23 26 29 31 32 32 31 32 32 31 36
27 28 28 30 31 29 28 30 24 24 24 21 20 17 12 15 14 15 18 18 19 22 23 26 28 28 27 29 31 33 31 32
25 24 25 26 27 28 30 28 24 23 25 20 23 24 21 21 21 20 20 21 21 20 19 21 24 26 27 27 29 35 36 37
25 23 23 23 24 25 21 17 19 21 19 23 25 25 25 24 23 22 21 21 22 24 23 22 22 21 22 26 31 35 36 35

GFSFLT1_850_spd_135.txt.gz
Wind_Speed
33 34 33 30 31 32 33 33 34 35 38 42 41 38 38 33 32 35 29 39 41 35 29 28 31 24 26 27 23 20 20 19
35 35 32 34 31 32 37 36 36 31 40 42 41 42 41 38 37 35 36 36 43 42 32 29 30 27 23 27 27 24 23 19
34 33 33 33 38 37 38 41 41 42 40 44 44 42 43 46 40 36 35 33 39 44 45 28 29 27 26 25 27 27 24 24
36 34 32 33 38 43 37 40 41 41 40 43 41 40 40 43 39 33 36 36 42 40 44 37 25 24 26 30 28 28 27 26
33 33 34 35 38 31 37 37 39 41 49 43 46 45 47 44 44 45 37 41 40 37 40 40 29 26 24 28 27 28 26 26
33 34 33 31 33 24 23 35 37 40 45 45 47 47 45 39 42 42 37 33 34 35 36 36 33 30 31 26 21 24 24 25
29 29 31 31 30 25 17 17 35 38 45 43 54 51 42 41 40 39 38 36 37 34 32 29 35 38 32 29 21 17 18 21
30 32 34 36 35 28 17 17 19 29 35 41 56 50 48 40 41 41 38 39 37 37 35 35 39 39 37 32 36 39 40 44
33 32 34 37 33 28 22 14 8 10 30 31 33 42 44 39 38 38 38 41 37 36 38 38 37 38 37 35 34 38 43 46
34 35 31 33 34 27 22 19 16 15 14 22 15 33 21 32 37 35 35 36 29 22 28 28 32 33 35 42 39 39 38 44
39 39 33 30 31 30 25 24 25 22 18 13 22 18 16 22 29 34 30 31 26 23 22 25 27 27 29 35 39 36 34 37
36 36 34 33 30 32 29 22 26 25 23 20 15 16 15 15 17 15 14 18 21 25 30 30 28 28 30 28 29 32 34 37
34 35 36 38 36 35 31 35 29 29 29 23 16 21 13 19 17 14 14 20 15 16 17 18 18 20 22 22 28 37 39 40
36 38 41 41 40 40 42 40 37 36 30 28 29 26 12 23 20 14 3 5 7 9 12 14 15 16 19 21 21 25 31 36
33 37 40 41 41 41 43 40 38 33 33 30 26 21 24 23 15 8 5 4 1 6 10 13 17 19 18 21 22 24 29 33
35 36 37 38 40 40 39 39 36 36 33 32 29 22 21 18 17 11 11 10 7 8 10 12 15 18 16 19 24 26 29 31
29 31 33 35 37 37 34 35 35 30 31 33 28 28 26 23 18 17 18 14 13 11 13 14 16 16 19 26 32 38 40 42
26 27 29 33 34 33 32 31 29 31 29 27 29 31 30 27 26 23 21 22 20 17 16 16 15 16 21 25 27 33 40 43
25 26 26 28 29 30 29 30 30 32 30 29 31 29 29 30 31 29 26 24 25 24 22 21 19 18 21 24 28 32 35 38

GFSFLT1_850_spd_138.txt.gz
Wind_Speed
34 34 35 33 30 27 27 31 33 32 37 35 42 42 44 38 39 43 38 42 40 41 33 34 30 33 32 31 27 23 25 25
30 34 38 37 31 27 27 29 26 40 38 32 41 43 47 42 47 45 41 43 43 48 38 38 34 33 32 30 30 27 24 20
36 37 38 40 37 30 36 33 32 34 43 42 34 46 48 53 44 53 53 41 43 53 44 42 38 38 31 30 31 30 23 24
36 37 38 42 40 33 37 34 27 31 40 44 47 41 47 45 49 46 46 52 47 45 53 41 42 39 41 30 29 31 32 26
34 36 37 37 39 38 38 35 29 19 37 42 44 41 45 49 54 48 43 49 51 50 50 48 43 39 40 34 32 30 28 31
35 36 37 35 38 35 38 36 30 23 21 34 42 44 42 48 54 48 46 48 50 49 46 52 45 36 32 38 40 35 31 28
34 36 36 34 35 33 32 33 30 28 26 27 37 45 45 45 51 52 45 46 49 49 47 44 53 41 36 40 40 37 34 33
37 40 40 36 34 32 28 25 26 26 31 31 35 44 39 48 57 58 49 43 48 53 48 42 44 51 49 45 43 40 34 35
34 36 37 37 34 32 28 26 20 19 21 23 31 33 44 51 51 55 50 53 49 52 48 41 40 47 54 47 43 35 35 34
34 34 34 35 34 30 30 24 22 25 20 17 13 12 18 29 30 49 48 50 48 44 41 40 39 43 45 42 36 38 34 37
33 34 37 37 37 37 32 25 24 26 18 18 13 5 7 20 7 24 17 53 43 44 43 40 38 40 36 37 37 41 39 43
32 35 38 38 38 42 40 38 28 27 17 22 20 19 17 15 15 30 8 40 44 39 35 30 28 26 29 36 33 39 38 38
34 34 39 41 41 41 42 39 36 29 25 24 22 21 22 21 16 14 14 23 33 37 38 29 18 17 17 20 28 35 30 29
33 37 39 39 39 38 39 38 35 36 35 32 31 32 27 25 20 19 23 19 17 21 20 19 14 15 16 17 19 22 26 29
30 35 37 36 37 38 38 39 35 38 38 37 37 37 32 26 20 28 24 19 18 15 14 18 17 14 20 22 22 27 30 29
28 30 33 36 37 37 38 38 36 33 39 40 42 36 36 30 24 24 23 21 14 11 9 5 6 10 13 18 23 28 30 33
25 26 29 32 35 35 36 37 38 37 36 37 36 36 37 30 31 26 28 22 16 14 10 9 3 8 10 15 22 26 29 34
24 25 26 28 30 31 32 32 34 37 37 36 36 35 32 31 28 32 30 21 13 16 17 15 12 11 11 15 14 18 21 25
22 25 26 28 29 28 30 31 33 36 36 36 32 31 30 30 32 29 28 25 26 21 21 18 15 16 15 17 17 18 19 22

GFSFLT1_850_spd_141.txt.gz
Wind_Speed
38 39 40 39 35 35 32 33 31 31 34 31 28 27 32 40 42 44 41 41 38 42 44 42 37 39 37 31 32 30 30 27
36 38 39 41 37 36 35 34 32 32 36 34 32 31 33 36 44 44 47 44 45 44 46 45 41 42 41 36 37 34 32 27
37 40 42 42 42 41 38 38 34 31 33 37 33 29 36 36 37 45 45 49 48 50 49 50 44 42 42 41 39 39 35 30
40 44 45 44 43 42 41 39 38 33 30 34 39 36 35 41 38 41 50 52 51 53 52 49 49 45 47 46 44 42 42 35
37 43 45 44 44 41 39 39 37 36 31 32 31 31 34 39 43 44 47 55 55 52 55 52 54 50 50 48 44 41 40 42
39 40 40 41 43 43 38 37 36 34 34 31 32 33 30 36 39 39 43 52 56 61 58 57 58 58 55 50 47 44 42 44
36 36 39 40 40 41 38 36 32 31 31 28 28 32 31 33 32 34 47 47 55 60 68 64 61 65 60 54 49 48 45 46
36 39 40 41 43 40 38 38 33 30 27 25 26 29 30 32 31 35 38 43 49 60 66 70 64 69 61 55 53 54 50 46
35 36 38 38 37 37 37 39 34 30 28 23 19 23 28 30 33 35 43 44 42 42 59 66 66 66 61 56 56 54 52 46
33 34 35 37 35 36 37 38 33 27 25 23 19 16 17 23 26 28 39 40 42 39 49 69 58 63 59 54 55 53 50 45
31 32 35 35 35 36 36 36 37 31 22 24 21 18 19 10 16 19 30 30 41 40 31 65 61 52 58 56 54 49 48 45
28 32 34 34 34 36 38 37 38 35 29 28 25 21 20 16 11 4 11 22 21 26 33 41 63 54 50 51 48 50 48 46
25 31 36 36 35 37 39 39 35 34 36 33 34 28 25 22 14 11 5 5 7 17 23 29 43 45 46 48 42 40 38 37
25 32 36 37 36 37 38 40 36 34 35 34 35 33 31 29 23 23 17 18 18 6 12 23 40 36 39 38 39 27 17 17
24 29 35 36 35 35 36 37 35 33 33 33 35 33 34 33 28 30 28 29 24 13 5 23 24 25 28 24 25 33 29 29
24 28 33 33 33 34 33 34 34 35 35 35 36 34 32 33 34 28 30 29 33 25 17 8 16 18 14 14 12 22 29 31
22 23 30 32 31 32 32 32 34 35 36 35 35 33 32 31 33 33 28 25 28 27 21 15 17 18 17 5 2 8 14 24
21 21 27 29 28 28 29 30 31 33 34 33 35 33 34 31 31 33 31 29 23 23 20 17 18 17 16 15 11 9 11 13
17 19 24 24 27 27 25 28 30 32 33 34 33 36 35 35 34 39 39 29 24 24 22 23 21 22 18 14 13 10 10 9